CAL347 RCTP-EDDH

Flight info

Callsign CAL347
Flight time N/A
Altitude 34000
Route CHALI1A CHALI T3 MKG A1 KADLO T1 KAPLI DCT ALLEY V10 SIKOU/K0937S1040 A202 ASSAD/K0937F340 A206 NALAO/N0507F340 A206 LPB B465 AKSAG/N0500F360 B465 CEA G450 JJS B209 LAPAN M875 BUTOP/N0487F380 M875 DI N644 LEMOD A909 TUNEK/N0487F400 A909 RODAR N644 TETRO M10 SARPI UM10 GOKPA UL746 ODERO DCT REVDA DCT KARIL DCT KELEL DCT NUDRO DCT SUBIX DCT RARUP RARUP3S
Aircraft A35K/H-SDE2E3GHIJ1J3J4J5LM1ORWXYZ/LB1D1

Departure

Time N/A
Airport Taiwan Taoyuan International Airport (RCTP)

Arrival

Time 2026-04-23 18:37
Airport Hamburg Helmut Schmidt Airport (EDDH)
Time Latitude Longitude Altitude Speed Heading
2026-04-23 09:12 22.27152 91.72116 35791 ft 445 kts 275°
2026-04-23 09:13 22.27540 91.68776 35791 ft 445 kts 275°
2026-04-23 09:13 22.28302 91.62153 35791 ft 445 kts 275°
2026-04-23 09:14 22.29056 91.55537 35791 ft 445 kts 275°
2026-04-23 09:14 22.29801 91.48933 35791 ft 445 kts 275°
2026-04-23 09:15 22.30545 91.42293 35792 ft 445 kts 275°
2026-04-23 09:15 22.31316 91.35658 35786 ft 446 kts 276°
2026-04-23 09:16 22.32167 91.29050 35797 ft 446 kts 275°
2026-04-23 09:16 22.33005 91.22447 35804 ft 445 kts 275°
2026-04-23 09:17 22.33833 91.15810 35812 ft 447 kts 275°
2026-04-23 09:17 22.34658 91.09132 35821 ft 454 kts 275°
2026-04-23 09:18 22.35488 91.02354 35829 ft 460 kts 275°
2026-04-23 09:18 22.36327 90.95470 35835 ft 467 kts 275°
2026-04-23 09:19 22.37177 90.88477 35840 ft 469 kts 275°
2026-04-23 09:19 22.38017 90.81552 35838 ft 469 kts 275°
2026-04-23 09:20 22.38862 90.74548 35831 ft 469 kts 275°
2026-04-23 09:20 22.39699 90.67585 35824 ft 470 kts 275°
2026-04-23 09:21 22.40536 90.60599 35820 ft 470 kts 275°
2026-04-23 09:21 22.41372 90.53599 35818 ft 470 kts 275°
2026-04-23 09:22 22.42203 90.46602 35819 ft 468 kts 275°
2026-04-23 09:22 22.43021 90.39691 35818 ft 465 kts 275°
2026-04-23 09:23 22.43835 90.32789 35819 ft 465 kts 275°
2026-04-23 09:23 22.44647 90.25871 35818 ft 465 kts 275°
2026-04-23 09:24 22.45458 90.18935 35818 ft 465 kts 275°
2026-04-23 09:24 22.46262 90.12045 35818 ft 466 kts 275°
2026-04-23 09:25 22.47071 90.05077 35818 ft 466 kts 275°
2026-04-23 09:25 22.47871 89.98170 35818 ft 466 kts 275°
2026-04-23 09:26 22.48676 89.91183 35818 ft 466 kts 275°
2026-04-23 09:26 22.49469 89.84283 35818 ft 466 kts 275°
2026-04-23 09:27 22.50268 89.77306 35818 ft 466 kts 275°
2026-04-23 09:27 22.51058 89.70367 35817 ft 466 kts 275°
2026-04-23 09:28 22.51847 89.63412 35812 ft 466 kts 275°
2026-04-23 09:28 22.52631 89.56481 35806 ft 467 kts 275°
2026-04-23 09:29 22.53413 89.49531 35798 ft 467 kts 275°
2026-04-23 09:29 22.54194 89.42554 35793 ft 467 kts 275°
2026-04-23 09:30 22.54969 89.35606 35792 ft 467 kts 275°
2026-04-23 09:30 22.55739 89.28657 35792 ft 467 kts 274°
2026-04-23 09:31 22.56506 89.21693 35787 ft 467 kts 274°
2026-04-23 09:31 22.57267 89.14745 35773 ft 467 kts 274°
2026-04-23 09:32 22.58025 89.07760 35755 ft 467 kts 274°
2026-04-23 09:32 22.58778 89.00785 35739 ft 466 kts 274°
2026-04-23 09:33 22.59580 88.93916 35728 ft 460 kts 276°
2026-04-23 09:33 22.60710 88.87157 35723 ft 454 kts 277°
2026-04-23 09:34 22.61837 88.80482 35718 ft 447 kts 276°
2026-04-23 09:34 22.62939 88.73877 35712 ft 445 kts 276°
2026-04-23 09:35 22.64024 88.67326 35710 ft 445 kts 276°
2026-04-23 09:35 22.65109 88.60747 35710 ft 445 kts 276°
2026-04-23 09:36 22.66191 88.54168 35710 ft 445 kts 276°
2026-04-23 09:36 22.67266 88.47610 35709 ft 444 kts 275°
2026-04-23 09:37 22.68009 88.40974 35708 ft 442 kts 272°
2026-04-23 09:37 22.68478 88.34360 35712 ft 441 kts 271°
2026-04-23 09:38 22.68925 88.27773 35710 ft 441 kts 271°
2026-04-23 09:38 22.69367 88.21153 35710 ft 441 kts 271°
2026-04-23 09:39 22.69802 88.14547 35710 ft 441 kts 271°
2026-04-23 09:39 22.70235 88.07906 35709 ft 441 kts 271°
2026-04-23 09:40 22.70661 88.01320 35710 ft 442 kts 271°
2026-04-23 09:40 22.71088 87.94689 35710 ft 442 kts 271°
2026-04-23 09:41 22.71509 87.88086 35710 ft 442 kts 271°
2026-04-23 09:41 22.71932 87.81425 35710 ft 442 kts 271°
2026-04-23 09:42 22.72348 87.74816 35717 ft 442 kts 271°
2026-04-23 09:42 22.72764 87.68165 35733 ft 442 kts 271°
2026-04-23 09:43 22.73176 87.61544 35753 ft 443 kts 271°
2026-04-23 09:43 22.73586 87.54900 35771 ft 443 kts 271°
2026-04-23 09:44 22.73995 87.48237 35774 ft 443 kts 271°
2026-04-23 09:44 22.74398 87.41607 35768 ft 444 kts 271°
2026-04-23 09:45 22.74801 87.34938 35759 ft 444 kts 270°
2026-04-23 09:45 22.75202 87.28254 35751 ft 444 kts 270°
2026-04-23 09:46 22.75601 87.21578 35746 ft 444 kts 270°
2026-04-23 09:46 22.75994 87.14942 35742 ft 445 kts 270°
2026-04-23 09:47 22.76387 87.08252 35739 ft 445 kts 270°
2026-04-23 09:47 22.76776 87.01587 35737 ft 445 kts 270°
2026-04-23 09:48 22.77161 86.94941 35736 ft 445 kts 270°
2026-04-23 09:48 22.77546 86.88232 35736 ft 445 kts 270°
2026-04-23 09:49 22.77926 86.81560 35736 ft 445 kts 270°
2026-04-23 09:49 22.78301 86.74918 35736 ft 445 kts 270°
2026-04-23 09:50 22.78675 86.68233 35736 ft 445 kts 270°
2026-04-23 09:50 22.79044 86.61577 35736 ft 445 kts 270°
2026-04-23 09:51 22.79411 86.54905 35736 ft 445 kts 270°
2026-04-23 09:51 22.79773 86.48214 35736 ft 445 kts 270°
2026-04-23 09:52 22.80129 86.41538 35736 ft 445 kts 270°
2026-04-23 09:52 22.80479 86.34839 35736 ft 445 kts 270°
2026-04-23 09:53 22.80846 86.28159 35740 ft 445 kts 271°
2026-04-23 09:53 22.81593 86.21522 35737 ft 447 kts 275°
2026-04-23 09:54 22.82853 86.14909 35737 ft 450 kts 279°
2026-04-23 09:54 22.84633 86.08378 35737 ft 453 kts 284°
2026-04-23 09:55 22.86795 86.01981 35736 ft 454 kts 285°
2026-04-23 09:55 22.89007 85.95546 35736 ft 455 kts 285°
2026-04-23 09:56 22.91211 85.89137 35736 ft 455 kts 285°
2026-04-23 09:56 22.93418 85.82719 35740 ft 455 kts 285°
2026-04-23 09:57 22.95620 85.76305 35751 ft 455 kts 285°
2026-04-23 09:57 22.97822 85.69882 35774 ft 455 kts 285°
2026-04-23 09:58 23.00013 85.63480 35804 ft 455 kts 285°
2026-04-23 09:58 23.02219 85.57026 35836 ft 454 kts 284°
2026-04-23 09:59 23.04408 85.50610 35857 ft 454 kts 284°
2026-04-23 09:59 23.06597 85.44182 35867 ft 455 kts 284°
2026-04-23 10:00 23.08776 85.37779 35870 ft 455 kts 284°
2026-04-23 10:00 23.10978 85.31311 35871 ft 454 kts 284°
2026-04-23 10:01 23.13177 85.24902 35871 ft 454 kts 284°
2026-04-23 10:01 23.15368 85.18476 35870 ft 454 kts 284°
2026-04-23 10:02 23.17547 85.12026 35869 ft 459 kts 285°
2026-04-23 10:02 23.19768 85.05436 35869 ft 465 kts 286°
2026-04-23 10:03 23.21995 84.98829 35869 ft 472 kts 287°
2026-04-23 10:03 23.24270 84.92079 35870 ft 477 kts 287°
2026-04-23 10:04 23.26561 84.85287 35871 ft 477 kts 287°
2026-04-23 10:04 23.28836 84.78522 35871 ft 477 kts 287°
2026-04-23 10:05 23.31107 84.71748 35871 ft 477 kts 287°
2026-04-23 10:05 23.33369 84.64988 35871 ft 477 kts 287°
2026-04-23 10:06 23.35647 84.58168 35871 ft 477 kts 287°
2026-04-23 10:06 23.37907 84.51390 35871 ft 477 kts 287°
2026-04-23 10:07 23.40163 84.44609 35871 ft 477 kts 287°
2026-04-23 10:07 23.42414 84.37833 35858 ft 477 kts 287°
2026-04-23 10:08 23.44670 84.31018 35843 ft 477 kts 287°
2026-04-23 10:08 23.46906 84.24241 35833 ft 477 kts 287°
2026-04-23 10:09 23.50258 84.14082 35824 ft 477 kts 287°
2026-04-23 10:09 23.52500 84.07281 35810 ft 477 kts 287°
2026-04-23 10:10 23.54742 84.00472 35785 ft 477 kts 287°
2026-04-23 10:10 23.56967 83.93699 35758 ft 478 kts 287°
2026-04-23 10:11 23.59202 83.86884 35745 ft 478 kts 287°
2026-04-23 10:11 23.61437 83.80048 35739 ft 478 kts 287°
2026-04-23 10:12 23.63644 83.73280 35737 ft 478 kts 287°
2026-04-23 10:12 23.65862 83.66451 35736 ft 478 kts 287°
2026-04-23 10:13 23.68075 83.59612 35736 ft 478 kts 287°
2026-04-23 10:13 23.70355 83.52833 35738 ft 479 kts 289°
2026-04-23 10:14 23.73142 83.46242 35736 ft 482 kts 294°
2026-04-23 10:14 23.76472 83.39915 35736 ft 484 kts 299°
2026-04-23 10:15 23.80344 83.33895 35739 ft 487 kts 303°
2026-04-23 10:15 23.84493 83.28075 35737 ft 487 kts 304°
2026-04-23 10:16 23.88673 83.22252 35739 ft 487 kts 304°
2026-04-23 10:16 23.92839 83.16447 35748 ft 487 kts 304°
2026-04-23 10:17 23.97003 83.10641 35760 ft 487 kts 304°
2026-04-23 10:17 24.01156 83.04846 35773 ft 486 kts 304°
2026-04-23 10:18 24.05322 82.99021 35780 ft 490 kts 304°
2026-04-23 10:18 24.09535 82.93121 35785 ft 491 kts 304°
2026-04-23 10:19 24.13784 82.87196 35786 ft 498 kts 305°
2026-04-23 10:19 24.18046 82.81251 35788 ft 503 kts 305°
2026-04-23 10:20 24.22376 82.75189 35790 ft 506 kts 305°
2026-04-23 10:20 24.26677 82.69154 35788 ft 506 kts 305°
2026-04-23 10:21 24.30995 82.63079 35790 ft 506 kts 305°
2026-04-23 10:21 24.35314 82.56994 35788 ft 506 kts 305°
2026-04-23 10:22 24.39603 82.50940 35790 ft 506 kts 305°
2026-04-23 10:22 24.43909 82.44854 35796 ft 505 kts 305°
2026-04-23 10:23 24.48210 82.38768 35806 ft 505 kts 305°
2026-04-23 10:23 24.52500 82.32682 35812 ft 505 kts 304°
2026-04-23 10:24 24.56768 82.26598 35817 ft 505 kts 304°
2026-04-23 10:24 24.61042 82.20512 35824 ft 505 kts 304°
2026-04-23 10:25 24.65337 82.14398 35835 ft 505 kts 304°
2026-04-23 10:25 24.69615 82.08304 35846 ft 507 kts 305°
2026-04-23 10:26 24.73908 82.02182 35853 ft 506 kts 305°
2026-04-23 10:26 24.78217 81.96029 35857 ft 506 kts 305°
2026-04-23 10:27 24.82492 81.89917 35860 ft 506 kts 305°
2026-04-23 10:27 24.86774 81.83785 35860 ft 506 kts 305°
2026-04-23 10:28 24.91040 81.77669 35860 ft 506 kts 305°
2026-04-23 10:28 24.95328 81.71510 35860 ft 506 kts 304°
2026-04-23 10:29 24.99589 81.65376 35861 ft 505 kts 305°
2026-04-23 10:29 25.03854 81.59226 35865 ft 504 kts 305°
2026-04-23 10:30 25.08079 81.53118 35868 ft 503 kts 306°
2026-04-23 10:30 25.12297 81.47025 35870 ft 502 kts 306°
2026-04-23 10:31 25.16574 81.40949 35871 ft 502 kts 307°
2026-04-23 10:31 25.20896 81.34909 35871 ft 502 kts 306°
2026-04-23 10:32 25.25185 81.28834 35871 ft 502 kts 306°
2026-04-23 10:32 25.29451 81.22759 35872 ft 502 kts 306°
2026-04-23 10:33 25.33712 81.16687 35871 ft 501 kts 306°
2026-04-23 10:33 25.37948 81.10644 35871 ft 501 kts 306°
2026-04-23 10:34 25.42233 81.04525 35871 ft 502 kts 306°
2026-04-23 10:34 25.46482 80.98450 35871 ft 504 kts 306°
2026-04-23 10:35 25.50767 80.92314 35871 ft 505 kts 306°
2026-04-23 10:35 25.55062 80.86156 35871 ft 506 kts 306°
2026-04-23 10:36 25.59362 80.79983 35863 ft 506 kts 306°
2026-04-23 10:36 25.63650 80.73820 35834 ft 506 kts 306°
2026-04-23 10:37 25.67932 80.67655 35792 ft 507 kts 306°
2026-04-23 10:37 25.72223 80.61467 35754 ft 508 kts 306°
2026-04-23 10:38 25.76494 80.55299 35731 ft 508 kts 306°
2026-04-23 10:38 25.80805 80.49062 35719 ft 508 kts 306°
2026-04-23 10:39 25.85067 80.42883 35714 ft 508 kts 306°
2026-04-23 10:39 25.89363 80.36638 35711 ft 508 kts 306°
2026-04-23 10:40 25.93636 80.30390 35710 ft 508 kts 306°
2026-04-23 10:40 25.97908 80.24199 35710 ft 508 kts 307°
2026-04-23 10:41 26.02367 80.18132 35710 ft 509 kts 308°
2026-04-23 10:41 26.06837 80.12075 35710 ft 508 kts 308°
2026-04-23 10:42 26.11292 80.05994 35710 ft 508 kts 308°
2026-04-23 10:42 26.15762 79.99904 35710 ft 508 kts 307°
2026-04-23 10:43 26.20214 79.93803 35710 ft 508 kts 307°
2026-04-23 10:43 26.24633 79.87720 35710 ft 508 kts 307°
2026-04-23 10:44 26.29075 79.81589 35710 ft 508 kts 307°
2026-04-23 10:44 26.33489 79.75486 35710 ft 508 kts 307°
2026-04-23 10:45 26.37936 79.69329 35710 ft 509 kts 307°
2026-04-23 10:45 26.42351 79.63208 35710 ft 509 kts 307°
2026-04-23 10:46 26.46751 79.57098 35710 ft 509 kts 307°
2026-04-23 10:46 26.51191 79.50925 35709 ft 510 kts 307°
2026-04-23 10:47 26.55594 79.44795 35710 ft 510 kts 307°
2026-04-23 10:47 26.60029 79.38611 35713 ft 510 kts 307°
2026-04-23 10:48 26.64469 79.32403 35725 ft 510 kts 307°
2026-04-23 10:48 26.68882 79.26202 35736 ft 510 kts 307°
2026-04-23 10:49 26.73283 79.20025 35739 ft 510 kts 307°
2026-04-23 10:49 26.77669 79.13869 35737 ft 510 kts 307°
2026-04-23 10:50 26.82091 79.07659 35736 ft 510 kts 307°
2026-04-23 10:50 26.86499 79.01462 35736 ft 511 kts 307°
2026-04-23 10:51 26.90913 78.95248 35737 ft 511 kts 307°
2026-04-23 10:51 26.95332 78.89023 35737 ft 510 kts 307°
2026-04-23 10:52 26.99732 78.82814 35737 ft 509 kts 307°
2026-04-23 10:52 27.04114 78.76620 35737 ft 508 kts 307°
2026-04-23 10:53 27.08502 78.70404 35736 ft 508 kts 306°
2026-04-23 10:53 27.12581 78.64639 35736 ft 508 kts 307°
2026-04-23 10:54 27.16973 78.58449 35737 ft 508 kts 307°
2026-04-23 10:54 27.21361 78.52235 35737 ft 509 kts 307°
2026-04-23 10:55 27.25736 78.46014 35737 ft 509 kts 306°
2026-04-23 10:55 27.30130 78.39752 35737 ft 509 kts 306°
2026-04-23 10:56 27.34480 78.33541 35738 ft 509 kts 306°
2026-04-23 10:56 27.38832 78.27287 35736 ft 509 kts 306°
2026-04-23 10:57 27.43212 78.20996 35736 ft 509 kts 306°
2026-04-23 10:57 27.47445 78.14919 35736 ft 509 kts 306°
2026-04-23 10:58 27.51820 78.08636 35736 ft 509 kts 306°
2026-04-23 10:58 27.56166 78.02385 35736 ft 510 kts 306°
2026-04-23 10:59 27.60540 77.96088 35736 ft 510 kts 306°
2026-04-23 10:59 27.64864 77.89852 35736 ft 510 kts 306°
2026-04-23 11:00 27.69226 77.83553 35736 ft 509 kts 306°
2026-04-23 11:00 27.73582 77.77254 35736 ft 509 kts 306°
2026-04-23 11:01 27.77897 77.71004 35736 ft 509 kts 306°
2026-04-23 11:01 27.82243 77.64703 35736 ft 509 kts 306°
2026-04-23 11:02 27.86578 77.58405 35736 ft 509 kts 306°
2026-04-23 11:02 27.90922 77.52084 35736 ft 509 kts 306°
2026-04-23 11:03 27.95265 77.45757 35743 ft 508 kts 306°
2026-04-23 11:03 27.99552 77.39501 35769 ft 506 kts 306°
2026-04-23 11:04 28.03846 77.33219 35811 ft 504 kts 306°
2026-04-23 11:04 28.08115 77.26939 35854 ft 501 kts 306°
2026-04-23 11:05 28.12377 77.20691 35871 ft 502 kts 306°
2026-04-23 11:05 28.16650 77.14457 35856 ft 504 kts 306°
2026-04-23 11:06 28.23091 77.05012 35811 ft 507 kts 306°
2026-04-23 11:07 28.27387 76.98691 35784 ft 507 kts 306°
2026-04-23 11:07 28.31675 76.92370 35771 ft 507 kts 306°
2026-04-23 11:08 28.35959 76.86045 35766 ft 505 kts 306°
2026-04-23 11:08 28.40226 76.79736 35764 ft 505 kts 305°
2026-04-23 11:09 28.44489 76.73421 35763 ft 505 kts 305°
2026-04-23 11:09 28.48739 76.67115 35763 ft 505 kts 305°
2026-04-23 11:10 28.52998 76.60785 35763 ft 505 kts 305°
2026-04-23 11:10 28.57230 76.54487 35763 ft 505 kts 305°
2026-04-23 11:11 28.61482 76.48150 35764 ft 504 kts 305°
2026-04-23 11:11 28.65726 76.41814 35768 ft 504 kts 305°
2026-04-23 11:12 28.69965 76.35474 35775 ft 503 kts 305°
2026-04-23 11:12 28.74191 76.29121 35782 ft 503 kts 305°
2026-04-23 11:13 28.78388 76.22803 35786 ft 503 kts 305°
2026-04-23 11:13 28.82593 76.16476 35788 ft 503 kts 305°
2026-04-23 11:14 28.86803 76.10141 35790 ft 503 kts 305°
2026-04-23 11:14 28.91038 76.03759 35790 ft 503 kts 305°
2026-04-23 11:15 28.95229 75.97434 35790 ft 503 kts 305°
2026-04-23 11:15 28.99418 75.91103 35790 ft 502 kts 305°
2026-04-23 11:16 29.03608 75.84757 35790 ft 502 kts 305°
2026-04-23 11:16 29.07814 75.78379 35790 ft 502 kts 305°
2026-04-23 11:17 29.12019 75.72004 35789 ft 502 kts 305°
2026-04-23 11:17 29.16213 75.65666 35790 ft 502 kts 305°
2026-04-23 11:18 29.20388 75.59315 35790 ft 502 kts 305°
2026-04-23 11:18 29.24563 75.52926 35790 ft 502 kts 304°
2026-04-23 11:19 29.28722 75.46531 35790 ft 502 kts 304°
2026-04-23 11:19 29.32882 75.40140 35790 ft 502 kts 305°
2026-04-23 11:20 29.37066 75.33765 35791 ft 502 kts 304°
2026-04-23 11:20 29.41231 75.27351 35790 ft 502 kts 304°
2026-04-23 11:21 29.45344 75.20980 35790 ft 502 kts 304°
2026-04-23 11:21 29.49489 75.14548 35790 ft 502 kts 304°
2026-04-23 11:22 29.53640 75.08096 35790 ft 501 kts 304°
2026-04-23 11:22 29.57764 75.01674 35790 ft 501 kts 304°
2026-04-23 11:23 29.61860 74.95288 35790 ft 501 kts 304°
2026-04-23 11:23 29.65996 74.88827 35789 ft 504 kts 304°
2026-04-23 11:24 29.70149 74.82331 35790 ft 504 kts 304°
2026-04-23 11:24 29.74287 74.75849 35790 ft 504 kts 304°
2026-04-23 11:25 29.78442 74.69328 35790 ft 504 kts 304°
2026-04-23 11:25 29.82559 74.62858 35790 ft 504 kts 304°
2026-04-23 11:26 29.86701 74.56335 35790 ft 504 kts 304°
2026-04-23 11:26 29.90829 74.49823 35789 ft 504 kts 304°
2026-04-23 11:27 29.94941 74.43327 35789 ft 504 kts 304°
2026-04-23 11:27 29.99062 74.36802 35789 ft 504 kts 304°
2026-04-23 11:28 30.03195 74.30231 35790 ft 504 kts 303°
2026-04-23 11:28 30.07287 74.23704 35790 ft 504 kts 303°
2026-04-23 11:29 30.11400 74.17155 35790 ft 504 kts 304°
2026-04-23 11:29 30.15528 74.10614 35790 ft 504 kts 304°
2026-04-23 11:30 30.19628 74.04058 35790 ft 504 kts 303°
2026-04-23 11:30 30.23723 73.97490 35790 ft 504 kts 303°
2026-04-23 11:31 30.27831 73.90990 35790 ft 504 kts 304°
2026-04-23 11:31 30.31958 73.84464 35790 ft 504 kts 304°
2026-04-23 11:32 30.36081 73.77894 35790 ft 504 kts 304°
2026-04-23 11:32 30.40191 73.71310 35790 ft 504 kts 304°
2026-04-23 11:33 30.44284 73.64738 35790 ft 504 kts 304°
2026-04-23 11:33 30.48361 73.58178 35790 ft 505 kts 304°
2026-04-23 11:34 30.52463 73.51562 35790 ft 505 kts 304°
2026-04-23 11:34 30.56550 73.44955 35790 ft 505 kts 304°
2026-04-23 11:35 30.60622 73.38353 35789 ft 505 kts 303°
2026-04-23 11:35 30.64694 73.31711 35785 ft 505 kts 303°
2026-04-23 11:36 30.68752 73.25095 35779 ft 506 kts 303°
2026-04-23 11:36 30.72876 73.18471 35773 ft 506 kts 303°
2026-04-23 11:37 30.76981 73.11845 35768 ft 506 kts 304°
2026-04-23 11:37 30.81077 73.05191 35765 ft 507 kts 304°
2026-04-23 11:38 30.85155 72.98546 35763 ft 507 kts 304°
2026-04-23 11:38 30.89234 72.91885 35764 ft 508 kts 304°
2026-04-23 11:39 30.93301 72.85239 35769 ft 507 kts 303°
2026-04-23 11:39 30.97400 72.78522 35774 ft 508 kts 303°
2026-04-23 11:40 31.01480 72.71821 35775 ft 509 kts 303°
2026-04-23 11:40 31.05551 72.65118 35775 ft 511 kts 302°
2026-04-23 11:41 31.09648 72.58354 35779 ft 510 kts 302°
2026-04-23 11:41 31.13752 72.51604 35789 ft 510 kts 303°
2026-04-23 11:42 31.17831 72.44868 35801 ft 509 kts 302°
2026-04-23 11:42 31.21890 72.38103 35809 ft 509 kts 302°
2026-04-23 11:43 31.25898 72.31348 35811 ft 508 kts 300°
2026-04-23 11:43 31.29492 72.24294 35812 ft 506 kts 296°
2026-04-23 11:44 31.32857 72.17075 35815 ft 506 kts 295°
2026-04-23 11:44 31.36194 72.09847 35816 ft 506 kts 295°
2026-04-23 11:45 31.39521 72.02639 35816 ft 506 kts 296°
2026-04-23 11:45 31.42855 71.95408 35816 ft 506 kts 296°
2026-04-23 11:46 31.46197 71.88145 35816 ft 506 kts 296°
2026-04-23 11:46 31.49497 71.80950 35816 ft 506 kts 295°
2026-04-23 11:47 31.52819 71.73684 35816 ft 506 kts 295°
2026-04-23 11:47 31.56119 71.66431 35820 ft 506 kts 295°
2026-04-23 11:48 31.59430 71.59173 35827 ft 506 kts 296°
2026-04-23 11:48 31.62778 71.51924 35835 ft 506 kts 296°
2026-04-23 11:49 31.66106 71.44670 35841 ft 505 kts 296°
2026-04-23 11:49 31.69406 71.37417 35843 ft 505 kts 296°
2026-04-23 11:50 31.72707 71.30115 35845 ft 505 kts 295°
2026-04-23 11:50 31.75975 71.22855 35845 ft 505 kts 295°
2026-04-23 11:51 31.79240 71.15600 35845 ft 505 kts 295°
2026-04-23 11:51 31.82529 71.08276 35845 ft 505 kts 295°
2026-04-23 11:52 31.85772 71.01025 35845 ft 505 kts 295°
2026-04-23 11:52 31.89043 70.93770 35846 ft 502 kts 296°
2026-04-23 11:53 31.92733 70.86786 35846 ft 502 kts 301°
2026-04-23 11:53 31.96901 70.80203 35846 ft 501 kts 303°
2026-04-23 11:54 32.01135 70.73752 35845 ft 500 kts 303°
2026-04-23 11:54 32.05382 70.67265 35844 ft 500 kts 303°
2026-04-23 11:55 32.09603 70.60798 35844 ft 500 kts 303°
2026-04-23 11:55 32.13858 70.54301 35845 ft 500 kts 303°
2026-04-23 11:56 32.18092 70.47820 35845 ft 500 kts 303°
2026-04-23 11:56 32.22319 70.41309 35847 ft 500 kts 303°
2026-04-23 11:57 32.26528 70.34794 35852 ft 500 kts 303°
2026-04-23 11:57 32.30721 70.28254 35860 ft 500 kts 302°
2026-04-23 11:58 32.34888 70.21749 35878 ft 500 kts 303°
2026-04-23 11:58 32.39145 70.15226 35901 ft 501 kts 304°
2026-04-23 11:59 32.43475 70.08828 35924 ft 502 kts 304°
2026-04-23 11:59 32.47817 70.02371 35942 ft 501 kts 304°
2026-04-23 12:00 32.52134 69.95902 35951 ft 501 kts 304°
2026-04-23 12:00 32.56447 69.89412 35954 ft 501 kts 304°
2026-04-23 12:01 32.60715 69.82971 35954 ft 501 kts 304°
2026-04-23 12:01 32.65013 69.76473 35959 ft 501 kts 304°
2026-04-23 12:02 32.69314 69.69958 35969 ft 501 kts 304°
2026-04-23 12:02 32.73581 69.63477 35982 ft 500 kts 304°
2026-04-23 12:03 32.77844 69.56982 35996 ft 500 kts 304°
2026-04-23 12:03 32.82104 69.50468 36004 ft 500 kts 304°
2026-04-23 12:04 32.86346 69.43980 36008 ft 500 kts 304°
2026-04-23 12:04 32.90641 69.37460 36009 ft 500 kts 304°
2026-04-23 12:05 32.94888 69.30975 36010 ft 499 kts 303°
2026-04-23 12:05 32.99128 69.24441 36009 ft 500 kts 303°
2026-04-23 12:06 33.03381 69.17874 36009 ft 501 kts 303°
2026-04-23 12:06 33.09764 69.08004 36009 ft 503 kts 303°
2026-04-23 12:07 33.14025 69.01440 36009 ft 504 kts 303°
2026-04-23 12:07 33.18304 68.94820 36014 ft 504 kts 302°
2026-04-23 12:08 33.22562 68.88168 36016 ft 504 kts 302°
2026-04-23 12:08 33.26799 68.81550 36008 ft 505 kts 303°
2026-04-23 12:09 33.31323 68.75110 36013 ft 508 kts 306°
2026-04-23 12:09 33.35923 68.68739 36026 ft 507 kts 306°
2026-04-23 12:10 33.40516 68.62331 36047 ft 507 kts 306°
2026-04-23 12:10 33.45083 68.55920 36070 ft 506 kts 305°
2026-04-23 12:11 33.49607 68.49536 36084 ft 506 kts 305°
2026-04-23 12:11 33.54159 68.43110 36089 ft 506 kts 306°
2026-04-23 12:12 33.58686 68.36639 36090 ft 505 kts 305°
2026-04-23 12:12 33.63145 68.30116 36091 ft 505 kts 304°
2026-04-23 12:13 33.67570 68.23593 36090 ft 505 kts 304°
2026-04-23 12:13 33.71975 68.17097 36090 ft 505 kts 304°
2026-04-23 12:14 33.76392 68.10576 36090 ft 505 kts 304°
2026-04-23 12:14 33.80825 68.04022 36090 ft 505 kts 304°
2026-04-23 12:15 33.85241 67.97476 36090 ft 505 kts 304°
2026-04-23 12:15 33.89634 67.90945 36090 ft 505 kts 304°
2026-04-23 12:16 33.94070 67.84324 36090 ft 505 kts 304°
2026-04-23 12:16 33.98465 67.77771 36090 ft 505 kts 304°
2026-04-23 12:17 34.02848 67.71221 36090 ft 505 kts 304°
2026-04-23 12:17 34.07249 67.64587 36090 ft 505 kts 303°
2026-04-23 12:18 34.11608 67.57988 36089 ft 505 kts 304°
2026-04-23 12:18 34.15994 67.51372 36090 ft 505 kts 304°
2026-04-23 12:19 34.20347 67.44740 36090 ft 505 kts 306°
2026-04-23 12:19 34.24710 67.38063 36061 ft 507 kts 307°
2026-04-23 12:20 34.29088 67.31389 36051 ft 506 kts 306°
2026-04-23 12:20 34.33434 67.24712 36052 ft 505 kts 306°
2026-04-23 12:21 34.37768 67.18045 36057 ft 505 kts 306°
2026-04-23 12:21 34.42077 67.11416 36062 ft 502 kts 306°
2026-04-23 12:22 34.46377 67.04774 36064 ft 499 kts 305°
2026-04-23 12:22 34.50623 66.98180 36064 ft 497 kts 304°
2026-04-23 12:23 34.54871 66.91592 36064 ft 496 kts 304°
2026-04-23 12:23 34.59130 66.85053 36064 ft 496 kts 304°
2026-04-23 12:24 34.63404 66.78449 36064 ft 496 kts 304°
2026-04-23 12:24 34.67634 66.71870 36064 ft 496 kts 304°
2026-04-23 12:25 34.71847 66.65293 36063 ft 496 kts 304°
2026-04-23 12:25 34.76089 66.58654 36057 ft 496 kts 304°
2026-04-23 12:26 34.80340 66.51985 36048 ft 496 kts 304°
2026-04-23 12:26 34.84556 66.45354 36042 ft 496 kts 304°
2026-04-23 12:27 34.88752 66.38737 36038 ft 496 kts 304°
2026-04-23 12:27 34.92950 66.32085 36039 ft 494 kts 303°
2026-04-23 12:28 34.97126 66.25459 36038 ft 490 kts 302°
2026-04-23 12:28 35.01275 66.18905 36038 ft 487 kts 302°
2026-04-23 12:29 35.05399 66.12346 36038 ft 484 kts 302°
2026-04-23 12:29 35.09469 66.05825 36037 ft 483 kts 302°
2026-04-23 12:30 35.13555 65.99298 36037 ft 483 kts 302°
2026-04-23 12:30 35.17651 65.92748 36037 ft 484 kts 302°
2026-04-23 12:31 35.21703 65.86231 36037 ft 484 kts 302°
2026-04-23 12:31 35.25755 65.79691 36037 ft 484 kts 302°
2026-04-23 12:32 35.29828 65.73099 36037 ft 483 kts 302°
2026-04-23 12:32 35.33887 65.66516 36034 ft 484 kts 302°
2026-04-23 12:33 35.37922 65.59959 36028 ft 484 kts 302°
2026-04-23 12:33 35.41978 65.53352 36023 ft 484 kts 302°
2026-04-23 12:34 35.46021 65.46757 36022 ft 484 kts 302°
2026-04-23 12:34 35.50052 65.40168 36022 ft 484 kts 302°
2026-04-23 12:35 35.54065 65.33593 36023 ft 483 kts 301°
2026-04-23 12:35 35.58078 65.26981 36014 ft 483 kts 301°
2026-04-23 12:36 35.62075 65.20393 36072 ft 484 kts 301°
2026-04-23 12:36 35.64092 65.17073 36533 ft 478 kts 301°
2026-04-23 12:36 35.66044 65.13860 37042 ft 472 kts 301°
2026-04-23 12:37 35.68007 65.10624 37402 ft 469 kts 301°
2026-04-23 12:37 35.69938 65.07434 37630 ft 468 kts 301°
2026-04-23 12:37 35.71875 65.04226 37797 ft 469 kts 301°
2026-04-23 12:37 35.73830 65.00989 37951 ft 469 kts 301°
2026-04-23 12:38 35.77719 64.94546 37983 ft 476 kts 300°
2026-04-23 12:38 35.81678 64.87980 37985 ft 476 kts 300°
2026-04-23 12:39 35.85602 64.81462 37985 ft 474 kts 299°
2026-04-23 12:39 35.89497 64.74971 37984 ft 472 kts 299°
2026-04-23 12:40 35.93399 64.68445 37984 ft 472 kts 299°
2026-04-23 12:40 35.97269 64.61965 37984 ft 472 kts 299°
2026-04-23 12:41 36.01168 64.55422 37984 ft 472 kts 299°
2026-04-23 12:41 36.05049 64.48892 37984 ft 472 kts 299°
2026-04-23 12:42 36.08912 64.42375 37984 ft 472 kts 299°
2026-04-23 12:42 36.12800 64.35821 37984 ft 473 kts 299°
2026-04-23 12:43 36.16665 64.29294 37985 ft 472 kts 298°
2026-04-23 12:43 36.20709 64.22828 37984 ft 474 kts 301°
2026-04-23 12:44 36.24757 64.16473 37984 ft 474 kts 300°
2026-04-23 12:44 36.28831 64.10012 37984 ft 474 kts 300°
2026-04-23 12:45 36.32832 64.03620 37984 ft 474 kts 300°
2026-04-23 12:45 36.36860 63.97162 37977 ft 473 kts 300°
2026-04-23 12:46 36.40887 63.90688 37966 ft 473 kts 300°
2026-04-23 12:46 36.44888 63.84243 37953 ft 473 kts 300°
2026-04-23 12:47 36.48890 63.77782 37941 ft 473 kts 300°
2026-04-23 12:47 36.52890 63.71312 37933 ft 473 kts 300°
2026-04-23 12:48 36.56879 63.64844 37931 ft 474 kts 300°
2026-04-23 12:48 36.60888 63.58333 37930 ft 474 kts 300°
2026-04-23 12:49 36.64872 63.51850 37930 ft 474 kts 300°
2026-04-23 12:49 36.68868 63.45337 37929 ft 474 kts 300°
2026-04-23 12:50 36.72852 63.38831 37929 ft 474 kts 300°
2026-04-23 12:50 36.76829 63.32316 37931 ft 473 kts 300°
2026-04-23 12:51 36.80806 63.25768 37930 ft 473 kts 300°
2026-04-23 12:51 36.84751 63.19273 37930 ft 473 kts 300°
2026-04-23 12:52 36.88714 63.12743 37930 ft 473 kts 300°
2026-04-23 12:52 36.92679 63.06201 37930 ft 473 kts 300°
2026-04-23 12:53 36.96635 62.99661 37929 ft 473 kts 300°
2026-04-23 12:53 37.00599 62.93086 37929 ft 476 kts 300°
2026-04-23 12:54 37.04577 62.86476 37929 ft 478 kts 301°
2026-04-23 12:54 37.08569 62.79832 37931 ft 480 kts 301°
2026-04-23 12:55 37.12583 62.73171 37936 ft 482 kts 302°
2026-04-23 12:55 37.16632 62.66473 37944 ft 483 kts 302°
2026-04-23 12:56 37.20656 62.59771 37951 ft 482 kts 302°
2026-04-23 12:56 37.24685 62.53026 37955 ft 482 kts 302°
2026-04-23 12:57 37.28685 62.46306 37956 ft 482 kts 302°
2026-04-23 12:57 37.32669 62.39598 37956 ft 482 kts 302°
2026-04-23 12:58 37.36690 62.32807 37957 ft 482 kts 301°
2026-04-23 12:58 37.40649 62.26082 37956 ft 482 kts 301°
2026-04-23 12:59 37.44644 62.19292 37956 ft 482 kts 301°
2026-04-23 12:59 37.48637 62.12495 37956 ft 483 kts 301°
2026-04-23 13:00 37.52613 62.05705 37956 ft 483 kts 301°
2026-04-23 13:00 37.56580 61.98909 37956 ft 483 kts 301°
2026-04-23 13:01 37.60498 61.92088 37956 ft 481 kts 299°
2026-04-23 13:01 37.63970 61.84965 37956 ft 477 kts 294°
2026-04-23 13:02 37.67005 61.77578 37956 ft 476 kts 292°
2026-04-23 13:02 37.69976 61.70141 37956 ft 476 kts 292°
2026-04-23 13:03 37.72958 61.62649 37956 ft 476 kts 292°
2026-04-23 13:03 37.75903 61.55234 37956 ft 476 kts 292°
2026-04-23 13:04 37.78854 61.47787 37956 ft 475 kts 292°
2026-04-23 13:04 37.81817 61.40296 37956 ft 475 kts 292°
2026-04-23 13:05 37.84753 61.32847 37957 ft 475 kts 291°
2026-04-23 13:05 37.87677 61.25393 37956 ft 475 kts 291°
2026-04-23 13:06 37.92078 61.14154 37956 ft 475 kts 292°
2026-04-23 13:07 37.95000 61.06679 37956 ft 475 kts 292°
2026-04-23 13:07 37.97908 60.99226 37956 ft 475 kts 292°
2026-04-23 13:08 38.00840 60.91693 37956 ft 476 kts 292°
2026-04-23 13:08 38.03759 60.84176 37956 ft 476 kts 292°
2026-04-23 13:09 38.06672 60.76658 37956 ft 476 kts 292°
2026-04-23 13:09 38.09581 60.69129 37956 ft 477 kts 292°
2026-04-23 13:10 38.12510 60.61591 37956 ft 477 kts 292°
2026-04-23 13:10 38.15429 60.54068 37956 ft 477 kts 292°
2026-04-23 13:11 38.18330 60.46533 37956 ft 477 kts 292°
2026-04-23 13:11 38.21236 60.38948 37956 ft 477 kts 292°
2026-04-23 13:12 38.24124 60.31371 37957 ft 477 kts 291°
2026-04-23 13:12 38.27001 60.23788 37956 ft 477 kts 291°
2026-04-23 13:13 38.29884 60.16182 37953 ft 477 kts 291°
2026-04-23 13:13 38.32760 60.08582 37944 ft 478 kts 291°
2026-04-23 13:14 38.35624 60.00996 37930 ft 478 kts 291°
2026-04-23 13:14 38.38511 59.93334 37917 ft 479 kts 291°
2026-04-23 13:15 38.41368 59.85727 37909 ft 479 kts 291°
2026-04-23 13:15 38.44235 59.78073 37906 ft 478 kts 291°
2026-04-23 13:16 38.47096 59.70412 37904 ft 478 kts 291°
2026-04-23 13:16 38.49924 59.62814 37903 ft 477 kts 291°
2026-04-23 13:17 38.52754 59.55180 37903 ft 477 kts 291°
2026-04-23 13:17 38.55570 59.47544 37903 ft 476 kts 291°
2026-04-23 13:18 38.58383 59.39893 37903 ft 476 kts 291°
2026-04-23 13:18 38.61290 59.32269 37904 ft 478 kts 292°
2026-04-23 13:19 38.64338 59.24741 37903 ft 477 kts 292°
2026-04-23 13:19 38.67365 59.17202 37903 ft 477 kts 292°
2026-04-23 13:20 38.70346 59.09703 37903 ft 477 kts 292°
2026-04-23 13:20 38.73340 59.02131 37903 ft 477 kts 292°
2026-04-23 13:21 38.76315 58.94571 37903 ft 476 kts 292°
2026-04-23 13:21 38.79298 58.86968 37903 ft 475 kts 292°
2026-04-23 13:22 38.82246 58.79416 37903 ft 475 kts 292°
2026-04-23 13:22 38.85172 58.71901 37903 ft 475 kts 293°
2026-04-23 13:23 38.88064 58.64321 37902 ft 473 kts 291°
2026-04-23 13:23 38.90507 58.56503 37903 ft 472 kts 287°
2026-04-23 13:24 38.92697 58.48569 37903 ft 472 kts 286°
2026-04-23 13:24 38.94860 58.40628 37902 ft 473 kts 286°
2026-04-23 13:25 38.97020 58.32660 37904 ft 473 kts 286°
2026-04-23 13:25 38.99175 58.24669 37903 ft 474 kts 286°
2026-04-23 13:26 39.01322 58.16697 37903 ft 474 kts 286°
2026-04-23 13:26 39.03474 58.08686 37903 ft 475 kts 286°
2026-04-23 13:27 39.05626 58.00658 37903 ft 475 kts 286°
2026-04-23 13:27 39.07771 57.92632 37903 ft 475 kts 286°
2026-04-23 13:28 39.09912 57.84591 37903 ft 476 kts 286°
2026-04-23 13:28 39.12062 57.76586 37903 ft 476 kts 286°
2026-04-23 13:29 39.14220 57.68518 37903 ft 476 kts 286°
2026-04-23 13:29 39.16342 57.60508 37903 ft 476 kts 286°
2026-04-23 13:30 39.18479 57.52387 37903 ft 476 kts 286°
2026-04-23 13:30 39.20591 57.44324 37903 ft 476 kts 286°
2026-04-23 13:31 39.22694 57.36266 37903 ft 476 kts 286°
2026-04-23 13:31 39.24791 57.28181 37903 ft 476 kts 285°
2026-04-23 13:32 39.26868 57.20145 37903 ft 476 kts 285°
2026-04-23 13:32 39.28960 57.12026 37903 ft 476 kts 285°
2026-04-23 13:33 39.31032 57.03956 37903 ft 476 kts 285°
2026-04-23 13:33 39.33109 56.95822 37903 ft 476 kts 285°
2026-04-23 13:34 39.35161 56.87722 37903 ft 476 kts 285°
2026-04-23 13:34 39.37207 56.79657 37902 ft 476 kts 285°
2026-04-23 13:35 39.39159 56.71457 37903 ft 475 kts 284°
2026-04-23 13:35 39.41034 56.63328 37903 ft 475 kts 284°
2026-04-23 13:36 39.42903 56.55167 37903 ft 475 kts 284°
2026-04-23 13:36 39.44782 56.46934 37903 ft 475 kts 284°
2026-04-23 13:37 39.46632 56.38798 37903 ft 475 kts 284°
2026-04-23 13:37 39.48494 56.30564 37904 ft 475 kts 283°
2026-04-23 13:38 39.50334 56.22375 37903 ft 475 kts 283°
2026-04-23 13:38 39.52171 56.14176 37903 ft 475 kts 283°
2026-04-23 13:39 39.53994 56.06000 37903 ft 475 kts 283°
2026-04-23 13:39 39.55810 55.97788 37903 ft 475 kts 283°
2026-04-23 13:40 39.57626 55.89592 37902 ft 475 kts 283°
2026-04-23 13:40 39.59491 55.81402 37903 ft 475 kts 284°
2026-04-23 13:41 39.61345 55.73203 37903 ft 475 kts 283°
2026-04-23 13:41 39.63185 55.64954 37903 ft 475 kts 283°
2026-04-23 13:42 39.65002 55.56729 37903 ft 475 kts 283°
2026-04-23 13:42 39.66807 55.48499 37903 ft 475 kts 283°
2026-04-23 13:43 39.68594 55.40302 37903 ft 475 kts 283°
2026-04-23 13:43 39.70406 55.32064 37904 ft 475 kts 283°
2026-04-23 13:44 39.72224 55.23836 37903 ft 475 kts 283°
2026-04-23 13:44 39.74023 55.15581 37902 ft 475 kts 283°
2026-04-23 13:45 39.75511 55.08702 37903 ft 477 kts 282°
2026-04-23 13:45 39.77585 54.99044 37903 ft 477 kts 282°
2026-04-23 13:46 39.79350 54.90748 37903 ft 477 kts 282°
2026-04-23 13:46 39.81093 54.82489 37898 ft 477 kts 282°
2026-04-23 13:47 39.82866 54.74150 37892 ft 478 kts 282°
2026-04-23 13:47 39.84662 54.65839 37884 ft 478 kts 282°
2026-04-23 13:48 39.86435 54.57500 37879 ft 478 kts 282°
2026-04-23 13:48 39.88180 54.49192 37876 ft 478 kts 282°
2026-04-23 13:49 39.89943 54.40877 37874 ft 478 kts 282°
2026-04-23 13:49 39.91707 54.32593 37876 ft 478 kts 281°
2026-04-23 13:50 39.93460 54.24222 37875 ft 477 kts 281°
2026-04-23 13:50 39.95189 54.15890 37875 ft 477 kts 281°
2026-04-23 13:51 39.96911 54.07546 37875 ft 477 kts 281°
2026-04-23 13:51 39.98614 53.99258 37875 ft 477 kts 281°
2026-04-23 13:52 40.00327 53.90886 37875 ft 477 kts 281°
2026-04-23 13:52 40.02031 53.82522 37875 ft 477 kts 281°
2026-04-23 13:53 40.03728 53.74165 37875 ft 477 kts 281°
2026-04-23 13:53 40.05412 53.65830 37874 ft 477 kts 281°
2026-04-23 13:54 40.07098 53.57454 37874 ft 477 kts 281°
2026-04-23 13:54 40.08774 53.49096 37874 ft 477 kts 281°
2026-04-23 13:55 40.10441 53.40759 37874 ft 477 kts 281°
2026-04-23 13:55 40.12137 53.32383 37875 ft 477 kts 281°
2026-04-23 13:56 40.13809 53.24001 37875 ft 477 kts 281°
2026-04-23 13:56 40.15465 53.15609 37875 ft 477 kts 281°
2026-04-23 13:57 40.17107 53.07243 37875 ft 477 kts 281°
2026-04-23 13:57 40.18744 52.98849 37875 ft 477 kts 281°
2026-04-23 13:58 40.20370 52.90465 37875 ft 478 kts 281°
2026-04-23 13:58 40.21998 52.82021 37875 ft 479 kts 281°
2026-04-23 13:59 40.23611 52.73591 37875 ft 479 kts 281°
2026-04-23 13:59 40.25216 52.65136 37875 ft 479 kts 281°
2026-04-23 14:00 40.26561 52.58085 37873 ft 479 kts 281°
2026-04-23 14:00 40.28498 52.48211 37875 ft 479 kts 281°
2026-04-23 14:01 40.30134 52.39761 37875 ft 479 kts 281°
2026-04-23 14:01 40.31743 52.31311 37875 ft 479 kts 280°
2026-04-23 14:02 40.33338 52.22851 37875 ft 479 kts 280°
2026-04-23 14:02 40.34929 52.14375 37875 ft 479 kts 280°
2026-04-23 14:03 40.36510 52.05911 37875 ft 479 kts 280°
2026-04-23 14:03 40.38088 51.97434 37879 ft 478 kts 280°
2026-04-23 14:04 40.39650 51.88994 37891 ft 477 kts 280°
2026-04-23 14:04 40.41203 51.80555 37907 ft 476 kts 280°
2026-04-23 14:05 40.42739 51.72150 37918 ft 476 kts 280°
2026-04-23 14:05 40.44280 51.63656 37923 ft 476 kts 280°
2026-04-23 14:06 40.45792 51.55248 37926 ft 476 kts 280°
2026-04-23 14:06 40.47356 51.46835 37927 ft 476 kts 282°
2026-04-23 14:07 40.49114 51.38451 37928 ft 477 kts 282°
2026-04-23 14:07 40.51715 51.25859 37928 ft 476 kts 281°
2026-04-23 14:08 40.53421 51.17435 37928 ft 476 kts 281°
2026-04-23 14:08 40.55111 51.09026 37928 ft 476 kts 281°
2026-04-23 14:09 40.56787 51.00640 37926 ft 476 kts 282°
2026-04-23 14:09 40.58455 50.92256 37919 ft 475 kts 282°
2026-04-23 14:10 40.60121 50.83852 37907 ft 475 kts 282°
2026-04-23 14:10 40.61770 50.75489 37895 ft 474 kts 282°
2026-04-23 14:11 40.63410 50.67124 37886 ft 474 kts 282°
2026-04-23 14:11 40.65042 50.58739 37880 ft 474 kts 282°
2026-04-23 14:12 40.66666 50.50325 37876 ft 474 kts 282°
2026-04-23 14:12 40.68296 50.41927 37875 ft 474 kts 282°
2026-04-23 14:13 40.69946 50.33583 37877 ft 474 kts 281°
2026-04-23 14:13 40.71581 50.25177 37875 ft 474 kts 281°
2026-04-23 14:14 40.73195 50.16778 37875 ft 474 kts 281°
2026-04-23 14:14 40.74796 50.08384 37875 ft 474 kts 281°
2026-04-23 14:15 40.76394 49.99971 37875 ft 474 kts 281°
2026-04-23 14:15 40.77987 49.91539 37875 ft 474 kts 281°
2026-04-23 14:16 40.79562 49.83159 37875 ft 474 kts 281°
2026-04-23 14:16 40.81138 49.74738 37875 ft 474 kts 281°
2026-04-23 14:17 40.82715 49.66267 37875 ft 474 kts 281°
2026-04-23 14:17 40.84271 49.57857 37874 ft 474 kts 281°
2026-04-23 14:18 40.85818 49.49435 37874 ft 474 kts 281°
2026-04-23 14:18 40.87352 49.41009 37874 ft 474 kts 281°
2026-04-23 14:19 40.88896 49.32539 37876 ft 474 kts 280°
2026-04-23 14:19 40.90378 49.24046 37875 ft 474 kts 280°
2026-04-23 14:20 40.91815 49.15611 37875 ft 473 kts 280°
2026-04-23 14:20 40.93254 49.07088 37875 ft 472 kts 280°
2026-04-23 14:21 40.94673 48.98629 37875 ft 471 kts 280°
2026-04-23 14:21 40.96086 48.90163 37875 ft 471 kts 280°
2026-04-23 14:22 40.97491 48.81722 37874 ft 471 kts 280°
2026-04-23 14:22 40.98892 48.73250 37874 ft 472 kts 279°
2026-04-23 14:23 41.00286 48.64773 37874 ft 473 kts 279°
2026-04-23 14:23 41.01678 48.56269 37874 ft 473 kts 279°
2026-04-23 14:24 41.03057 48.47797 37874 ft 474 kts 279°
2026-04-23 14:24 41.04445 48.39224 37874 ft 475 kts 279°
2026-04-23 14:25 41.05815 48.30696 37875 ft 475 kts 278°
2026-04-23 14:25 41.07180 48.22134 37875 ft 476 kts 278°
2026-04-23 14:26 41.08547 48.13507 37874 ft 478 kts 278°
2026-04-23 14:26 41.09901 48.04895 37873 ft 480 kts 278°
2026-04-23 14:27 41.11285 47.96279 37872 ft 482 kts 278°
2026-04-23 14:27 41.12720 47.87523 37873 ft 483 kts 278°
2026-04-23 14:28 41.14110 47.78829 37873 ft 483 kts 278°
2026-04-23 14:28 41.15476 47.70124 37873 ft 483 kts 278°
2026-04-23 14:29 41.16822 47.61447 37873 ft 483 kts 278°
2026-04-23 14:29 41.18169 47.52709 37873 ft 483 kts 278°
2026-04-23 14:30 41.19506 47.43988 37873 ft 483 kts 278°
2026-04-23 14:30 41.20837 47.35247 37873 ft 483 kts 278°
2026-04-23 14:31 41.22157 47.26505 37873 ft 482 kts 277°
2026-04-23 14:31 41.23470 47.17757 37940 ft 482 kts 277°
2026-04-23 14:32 41.24118 47.13432 38349 ft 477 kts 277°
2026-04-23 14:32 41.24760 47.09135 38790 ft 471 kts 277°
2026-04-23 14:32 41.25397 47.04852 39092 ft 469 kts 277°
2026-04-23 14:32 41.26022 47.00615 39293 ft 468 kts 277°
2026-04-23 14:33 41.26642 46.96394 39529 ft 465 kts 277°
2026-04-23 14:33 41.27256 46.92193 39804 ft 461 kts 277°
2026-04-23 14:33 41.28459 46.83888 39875 ft 460 kts 278°
2026-04-23 14:34 41.29667 46.75597 39875 ft 455 kts 279°
2026-04-23 14:34 41.30878 46.67356 39875 ft 455 kts 278°
2026-04-23 14:35 41.32064 46.59092 39875 ft 455 kts 278°
2026-04-23 14:35 41.33228 46.50816 39875 ft 455 kts 278°
2026-04-23 14:36 41.34380 46.42530 39875 ft 455 kts 278°
2026-04-23 14:36 41.35520 46.34264 39877 ft 455 kts 278°
2026-04-23 14:37 41.36657 46.25941 39874 ft 455 kts 278°
2026-04-23 14:37 41.37782 46.17658 39867 ft 456 kts 278°
2026-04-23 14:38 41.38901 46.09385 39860 ft 456 kts 278°
2026-04-23 14:38 41.40022 46.01057 39856 ft 456 kts 278°
2026-04-23 14:39 41.41131 45.92765 39857 ft 456 kts 278°
2026-04-23 14:39 41.42235 45.84455 39861 ft 456 kts 278°
2026-04-23 14:40 41.43328 45.76164 39863 ft 456 kts 278°
2026-04-23 14:40 41.44424 45.67783 39856 ft 456 kts 278°
2026-04-23 14:41 41.45502 45.59476 39842 ft 455 kts 278°
2026-04-23 14:41 41.46568 45.51144 39828 ft 457 kts 278°
2026-04-23 14:42 41.47637 45.42766 39823 ft 458 kts 278°
2026-04-23 14:42 41.48617 45.34407 39823 ft 457 kts 275°
2026-04-23 14:43 41.49355 45.25958 39822 ft 457 kts 274°
2026-04-23 14:43 41.50052 45.17594 39822 ft 457 kts 274°
2026-04-23 14:44 41.50740 45.09134 39822 ft 457 kts 274°
2026-04-23 14:44 41.51414 45.00732 39822 ft 455 kts 274°
2026-04-23 14:45 41.52079 44.92358 39822 ft 454 kts 274°
2026-04-23 14:45 41.52735 44.83997 39822 ft 453 kts 274°
2026-04-23 14:46 41.53382 44.75650 39822 ft 453 kts 274°
2026-04-23 14:46 41.54022 44.67313 39822 ft 453 kts 274°
2026-04-23 14:47 41.54657 44.58942 39822 ft 453 kts 274°
2026-04-23 14:47 41.55282 44.50603 39822 ft 453 kts 274°
2026-04-23 14:48 41.55898 44.42248 39822 ft 453 kts 274°
2026-04-23 14:48 41.56504 44.33851 39824 ft 453 kts 273°
2026-04-23 14:49 41.57103 44.25499 39822 ft 453 kts 274°
2026-04-23 14:49 41.57758 44.17133 39821 ft 453 kts 274°
2026-04-23 14:50 41.58443 44.08769 39822 ft 453 kts 274°
2026-04-23 14:50 41.59099 44.00458 39823 ft 453 kts 274°
2026-04-23 14:51 41.59741 43.92102 39823 ft 453 kts 274°
2026-04-23 14:51 41.60372 43.83741 39828 ft 453 kts 274°
2026-04-23 14:52 41.60999 43.75322 39847 ft 453 kts 274°
2026-04-23 14:52 41.61610 43.66967 39869 ft 453 kts 274°
2026-04-23 14:53 41.62207 43.58622 39886 ft 453 kts 274°
2026-04-23 14:53 41.62809 43.50233 39890 ft 453 kts 274°
2026-04-23 14:54 41.63442 43.41856 39889 ft 453 kts 274°
2026-04-23 14:54 41.64065 43.33449 39888 ft 451 kts 274°
2026-04-23 14:55 41.64659 43.25109 39886 ft 450 kts 273°
2026-04-23 14:55 41.65239 43.16790 39883 ft 448 kts 273°
2026-04-23 14:56 41.65801 43.08546 39880 ft 442 kts 273°
2026-04-23 14:56 41.66341 43.00504 39878 ft 432 kts 273°
2026-04-23 14:57 41.66849 42.92504 39876 ft 426 kts 272°
2026-04-23 14:57 41.66966 42.84606 39876 ft 425 kts 268°
2026-04-23 14:58 41.66588 42.76723 39875 ft 425 kts 264°
2026-04-23 14:58 41.65959 42.68852 39876 ft 425 kts 264°
2026-04-23 14:59 41.65313 42.60981 39876 ft 425 kts 264°
2026-04-23 14:59 41.64661 42.53165 39876 ft 425 kts 264°
2026-04-23 15:00 41.63997 42.45316 39876 ft 425 kts 264°
2026-04-23 15:00 41.63331 42.37501 39876 ft 425 kts 264°
2026-04-23 15:01 41.62652 42.29620 39877 ft 425 kts 263°
2026-04-23 15:01 41.61975 42.21805 39877 ft 425 kts 263°
2026-04-23 15:02 41.61291 42.13976 39892 ft 425 kts 263°
2026-04-23 15:02 41.60596 42.06116 39926 ft 425 kts 263°
2026-04-23 15:03 41.59898 41.98295 39967 ft 424 kts 263°
2026-04-23 15:03 41.59194 41.90476 39996 ft 424 kts 263°
2026-04-23 15:04 41.58482 41.82653 40008 ft 424 kts 263°
2026-04-23 15:04 41.57762 41.74831 40012 ft 424 kts 263°
2026-04-23 15:05 41.57030 41.67002 40013 ft 424 kts 263°
2026-04-23 15:05 41.56295 41.59195 40013 ft 424 kts 263°
2026-04-23 15:06 41.55623 41.51388 40012 ft 424 kts 265°
2026-04-23 15:06 41.55382 41.43505 40013 ft 424 kts 269°
2026-04-23 15:07 41.55604 41.35612 40012 ft 425 kts 273°
2026-04-23 15:07 41.56040 41.27725 40013 ft 425 kts 272°
2026-04-23 15:08 41.56471 41.19884 40013 ft 425 kts 272°
2026-04-23 15:09 41.57122 41.08082 40013 ft 425 kts 272°
2026-04-23 15:09 41.57550 41.00259 40012 ft 425 kts 272°
2026-04-23 15:10 41.57905 40.93661 40012 ft 428 kts 272°
2026-04-23 15:10 41.58395 40.84394 40012 ft 431 kts 272°
2026-04-23 15:11 41.58808 40.76357 40012 ft 435 kts 272°
2026-04-23 15:11 41.59215 40.68303 40013 ft 435 kts 272°
2026-04-23 15:12 41.59641 40.60226 40012 ft 435 kts 272°
2026-04-23 15:12 41.60083 40.52192 40013 ft 435 kts 272°
2026-04-23 15:13 41.60505 40.44126 40013 ft 435 kts 272°
2026-04-23 15:13 41.60908 40.36105 40013 ft 435 kts 272°
2026-04-23 15:14 41.61301 40.28043 40013 ft 435 kts 272°
2026-04-23 15:14 41.61691 40.19935 40013 ft 435 kts 272°
2026-04-23 15:15 41.62070 40.11889 40013 ft 435 kts 272°
2026-04-23 15:15 41.62442 40.03851 40013 ft 435 kts 272°
2026-04-23 15:16 41.62808 39.95803 40013 ft 435 kts 272°
2026-04-23 15:16 41.63168 39.87713 40013 ft 435 kts 272°
2026-04-23 15:17 41.63519 39.79639 40013 ft 435 kts 272°
2026-04-23 15:17 41.63859 39.71584 40013 ft 435 kts 271°
2026-04-23 15:18 41.64190 39.63539 40013 ft 435 kts 272°
2026-04-23 15:18 41.64538 39.55468 40012 ft 435 kts 272°
2026-04-23 15:19 41.64910 39.47384 40013 ft 435 kts 272°
2026-04-23 15:19 41.65259 39.39346 40013 ft 435 kts 272°
2026-04-23 15:20 41.65538 39.32603 40014 ft 435 kts 271°
2026-04-23 15:20 41.65914 39.23200 40012 ft 434 kts 271°
2026-04-23 15:21 41.66229 39.15120 40009 ft 434 kts 271°
2026-04-23 15:21 41.66539 39.07058 40006 ft 433 kts 271°
2026-04-23 15:22 41.66842 38.99070 40001 ft 429 kts 270°
2026-04-23 15:22 41.67137 38.91121 39996 ft 425 kts 270°
2026-04-23 15:23 41.67419 38.83257 39990 ft 423 kts 269°
2026-04-23 15:23 41.67693 38.75363 39990 ft 423 kts 269°
2026-04-23 15:24 41.67962 38.67533 39992 ft 423 kts 269°
2026-04-23 15:24 41.68228 38.59648 39996 ft 423 kts 269°
2026-04-23 15:25 41.68487 38.51821 39998 ft 423 kts 269°
2026-04-23 15:25 41.68744 38.43930 39998 ft 423 kts 269°
2026-04-23 15:26 41.68993 38.36087 39998 ft 423 kts 269°
2026-04-23 15:26 41.69237 38.28212 39999 ft 423 kts 269°
2026-04-23 15:27 41.69477 38.20321 39999 ft 423 kts 269°
2026-04-23 15:27 41.69708 38.12488 39999 ft 423 kts 269°
2026-04-23 15:28 41.69933 38.04676 39999 ft 423 kts 269°
2026-04-23 15:28 41.70152 37.96815 40003 ft 423 kts 269°
2026-04-23 15:29 41.70363 37.88991 40007 ft 423 kts 269°
2026-04-23 15:29 41.70565 37.81107 40011 ft 423 kts 269°
2026-04-23 15:30 41.70755 37.73299 40012 ft 423 kts 269°
2026-04-23 15:30 41.70954 37.65443 40011 ft 423 kts 269°
2026-04-23 15:31 41.71185 37.57579 40012 ft 423 kts 269°
2026-04-23 15:31 41.71400 37.49726 40012 ft 423 kts 269°
2026-04-23 15:32 41.71596 37.41898 40012 ft 423 kts 269°
2026-04-23 15:32 41.71783 37.33991 40016 ft 423 kts 268°
2026-04-23 15:33 41.71961 37.26126 40013 ft 423 kts 268°
2026-04-23 15:33 41.72139 37.18205 40011 ft 430 kts 268°
2026-04-23 15:34 41.72299 37.10181 40012 ft 438 kts 268°
2026-04-23 15:34 41.72461 37.02001 40012 ft 442 kts 268°
2026-04-23 15:35 41.72622 36.93739 40012 ft 445 kts 269°
2026-04-23 15:35 41.72781 36.85446 40013 ft 445 kts 269°
2026-04-23 15:36 41.72933 36.77175 40013 ft 445 kts 269°
2026-04-23 15:36 41.73077 36.68939 40013 ft 445 kts 269°
2026-04-23 15:37 41.73215 36.60669 40013 ft 445 kts 269°
2026-04-23 15:37 41.73326 36.53767 40013 ft 445 kts 269°
2026-04-23 15:38 41.73474 36.44064 40012 ft 445 kts 269°
2026-04-23 15:38 41.73593 36.35836 40013 ft 443 kts 269°
2026-04-23 15:39 41.73706 36.27579 40013 ft 442 kts 268°
2026-04-23 15:39 41.73814 36.19360 40013 ft 442 kts 268°
2026-04-23 15:40 41.73915 36.11163 40013 ft 442 kts 268°
2026-04-23 15:40 41.74011 36.02935 40013 ft 442 kts 268°
2026-04-23 15:41 41.74101 35.94691 40013 ft 442 kts 268°
2026-04-23 15:41 41.74184 35.86499 40013 ft 442 kts 268°
2026-04-23 15:42 41.74261 35.78274 40013 ft 442 kts 268°
2026-04-23 15:42 41.74333 35.70031 40013 ft 442 kts 268°
2026-04-23 15:43 41.74398 35.61800 40013 ft 442 kts 268°
2026-04-23 15:43 41.74457 35.53607 40013 ft 442 kts 268°
2026-04-23 15:44 41.74511 35.45327 40012 ft 442 kts 268°
2026-04-23 15:44 41.74558 35.37110 40012 ft 442 kts 268°
2026-04-23 15:45 41.74598 35.28866 40013 ft 442 kts 267°
2026-04-23 15:45 41.74633 35.20668 40013 ft 442 kts 267°
2026-04-23 15:46 41.74661 35.12438 40013 ft 442 kts 267°
2026-04-23 15:46 41.74681 35.04207 40013 ft 442 kts 267°
2026-04-23 15:47 41.74694 34.96019 40014 ft 435 kts 267°
2026-04-23 15:47 41.74696 34.88048 40013 ft 430 kts 267°
2026-04-23 15:48 41.74687 34.80089 40013 ft 427 kts 267°
2026-04-23 15:48 41.74707 34.72099 40013 ft 427 kts 268°
2026-04-23 15:49 41.75119 34.64174 40013 ft 429 kts 272°
2026-04-23 15:49 41.76015 34.56225 40013 ft 432 kts 276°
2026-04-23 15:50 41.77398 34.48385 40007 ft 435 kts 281°
2026-04-23 15:50 41.79171 34.40579 39986 ft 436 kts 282°
2026-04-23 15:51 41.80964 34.32831 39966 ft 437 kts 281°
2026-04-23 15:51 41.82765 34.25046 39948 ft 436 kts 281°
2026-04-23 15:52 41.84563 34.17271 39939 ft 436 kts 282°
2026-04-23 15:52 41.86347 34.09536 39928 ft 436 kts 282°
2026-04-23 15:53 41.88146 34.01707 39914 ft 436 kts 282°
2026-04-23 15:53 41.89923 33.93940 39908 ft 436 kts 281°
2026-04-23 15:54 41.91694 33.86148 39905 ft 436 kts 281°
2026-04-23 15:54 41.93452 33.78375 39895 ft 437 kts 281°
2026-04-23 15:55 41.95226 33.70452 39910 ft 444 kts 281°
2026-04-23 15:55 41.96830 33.62400 39919 ft 447 kts 280°
2026-04-23 15:56 41.98397 33.54335 39926 ft 446 kts 280°
2026-04-23 15:56 41.99952 33.46246 39933 ft 446 kts 280°
2026-04-23 15:57 42.01484 33.38213 39941 ft 446 kts 280°
2026-04-23 15:57 42.03007 33.30166 39951 ft 445 kts 279°
2026-04-23 15:58 42.04522 33.22100 39961 ft 444 kts 279°
2026-04-23 15:58 42.06030 33.14030 39971 ft 444 kts 279°
2026-04-23 15:59 42.07248 33.07534 39973 ft 446 kts 280°
2026-04-23 15:59 42.08907 32.99427 39980 ft 451 kts 281°
2026-04-23 16:00 42.10606 32.91269 39982 ft 456 kts 282°
2026-04-23 16:00 42.12317 32.83033 39984 ft 460 kts 282°
2026-04-23 16:01 42.14006 32.74714 39985 ft 461 kts 281°
2026-04-23 16:01 42.15666 32.66404 39985 ft 461 kts 281°
2026-04-23 16:02 42.17346 32.58064 39984 ft 462 kts 282°
2026-04-23 16:02 42.19036 32.49752 39985 ft 462 kts 282°
2026-04-23 16:03 42.20703 32.41394 39985 ft 462 kts 281°
2026-04-23 16:03 42.22338 32.33066 39987 ft 461 kts 281°
2026-04-23 16:04 42.23960 32.24724 39985 ft 461 kts 281°
2026-04-23 16:04 42.25601 32.16340 39985 ft 461 kts 281°
2026-04-23 16:05 42.26960 32.09423 39989 ft 461 kts 281°
2026-04-23 16:05 42.28904 31.99708 40003 ft 460 kts 281°
2026-04-23 16:06 42.30547 31.91349 40018 ft 460 kts 281°
2026-04-23 16:06 42.32166 31.83016 40029 ft 460 kts 281°
2026-04-23 16:07 42.33778 31.74657 40035 ft 459 kts 281°
2026-04-23 16:07 42.35375 31.66333 40038 ft 459 kts 281°
2026-04-23 16:08 42.36967 31.57987 40039 ft 459 kts 281°
2026-04-23 16:08 42.38557 31.49614 40039 ft 459 kts 281°
2026-04-23 16:09 42.40129 31.41286 40039 ft 459 kts 281°
2026-04-23 16:09 42.41696 31.32929 40041 ft 458 kts 280°
2026-04-23 16:10 42.43243 31.24596 40039 ft 458 kts 280°
2026-04-23 16:10 42.44777 31.16244 40038 ft 458 kts 282°
2026-04-23 16:11 42.46325 31.07816 40033 ft 466 kts 285°
2026-04-23 16:11 42.47954 30.99235 40032 ft 475 kts 286°
2026-04-23 16:12 42.49606 30.90469 40038 ft 485 kts 285°
2026-04-23 16:12 42.51246 30.81560 40040 ft 494 kts 285°
2026-04-23 16:13 42.52906 30.72442 40040 ft 503 kts 285°
2026-04-23 16:13 42.55405 30.58577 40039 ft 509 kts 285°
2026-04-23 16:14 42.57068 30.49233 40039 ft 509 kts 285°
2026-04-23 16:14 42.58806 30.39917 40033 ft 508 kts 289°
2026-04-23 16:15 42.61037 30.32604 40038 ft 506 kts 298°
2026-04-23 16:15 42.64906 30.24657 40040 ft 504 kts 310°
2026-04-23 16:16 42.69869 30.18035 40040 ft 503 kts 322°
2026-04-23 16:16 42.75489 30.12430 40040 ft 502 kts 325°
2026-04-23 16:17 42.81142 30.06942 40039 ft 503 kts 325°
2026-04-23 16:17 42.86821 30.01387 40039 ft 503 kts 325°
2026-04-23 16:18 42.92450 29.95840 40042 ft 498 kts 325°
2026-04-23 16:18 42.97969 29.90374 40046 ft 486 kts 326°
2026-04-23 16:19 43.03388 29.84998 40050 ft 476 kts 327°
2026-04-23 16:19 43.08679 29.79749 40054 ft 470 kts 327°
2026-04-23 16:20 43.13954 29.74527 40060 ft 471 kts 327°
2026-04-23 16:20 43.19246 29.69277 40064 ft 471 kts 327°
2026-04-23 16:21 43.24518 29.64016 40059 ft 471 kts 327°
2026-04-23 16:21 43.29822 29.58703 40023 ft 471 kts 327°
2026-04-23 16:22 43.35083 29.53417 39968 ft 472 kts 327°
2026-04-23 16:22 43.40373 29.48088 39910 ft 472 kts 327°
2026-04-23 16:23 43.45646 29.42760 39877 ft 473 kts 327°
2026-04-23 16:23 43.50915 29.37422 39862 ft 473 kts 327°
2026-04-23 16:24 43.56191 29.32044 39854 ft 473 kts 326°
2026-04-23 16:24 43.61477 29.26616 39852 ft 473 kts 326°
2026-04-23 16:25 43.66734 29.21235 39850 ft 473 kts 327°
2026-04-23 16:25 43.71939 29.15682 39850 ft 475 kts 323°
2026-04-23 16:26 43.76796 29.09498 39850 ft 478 kts 318°
2026-04-23 16:26 43.81406 29.02819 39850 ft 479 kts 317°
2026-04-23 16:27 43.85969 28.96089 39850 ft 481 kts 317°
2026-04-23 16:27 43.90553 28.89308 39849 ft 484 kts 317°
2026-04-23 16:28 43.95138 28.82514 39849 ft 486 kts 317°
2026-04-23 16:28 43.99774 28.75628 39850 ft 488 kts 317°
2026-04-23 16:29 44.04402 28.68736 39850 ft 488 kts 317°
2026-04-23 16:29 44.09011 28.61858 39850 ft 488 kts 317°
2026-04-23 16:30 44.13633 28.54972 39851 ft 488 kts 317°
2026-04-23 16:30 44.18277 28.48046 39850 ft 488 kts 317°
2026-04-23 16:31 44.22893 28.41126 39850 ft 488 kts 317°
2026-04-23 16:31 44.27519 28.34162 39849 ft 488 kts 316°
2026-04-23 16:32 44.32084 28.27234 39850 ft 489 kts 316°
2026-04-23 16:32 44.36693 28.20229 39850 ft 489 kts 316°
2026-04-23 16:33 44.41270 28.13271 39850 ft 489 kts 316°
2026-04-23 16:33 44.45860 28.06281 39850 ft 489 kts 316°
2026-04-23 16:34 44.50454 27.99272 39850 ft 489 kts 316°
2026-04-23 16:34 44.55054 27.92236 39850 ft 489 kts 316°
2026-04-23 16:35 44.59638 27.85207 39850 ft 489 kts 316°
2026-04-23 16:35 44.64198 27.78198 39850 ft 489 kts 316°
2026-04-23 16:36 44.68764 27.71161 39850 ft 489 kts 316°
2026-04-23 16:36 44.73347 27.64080 39850 ft 489 kts 316°
2026-04-23 16:37 44.77887 27.57048 39850 ft 488 kts 316°
2026-04-23 16:37 44.82449 27.49962 39852 ft 488 kts 316°
2026-04-23 16:38 44.87004 27.42872 39858 ft 488 kts 316°
2026-04-23 16:38 44.91519 27.35824 39865 ft 488 kts 316°
2026-04-23 16:39 44.96032 27.28733 39872 ft 483 kts 316°
2026-04-23 16:39 45.00509 27.21675 39874 ft 484 kts 316°
2026-04-23 16:40 45.04976 27.14633 39875 ft 484 kts 316°
2026-04-23 16:40 45.09465 27.07550 39875 ft 485 kts 317°
2026-04-23 16:41 45.13981 27.00442 39875 ft 485 kts 317°
2026-04-23 16:41 45.18476 26.93359 39875 ft 485 kts 317°
2026-04-23 16:42 45.22974 26.86231 39875 ft 485 kts 317°
2026-04-23 16:42 45.27461 26.79091 39875 ft 485 kts 317°
2026-04-23 16:43 45.31923 26.71968 39875 ft 485 kts 317°
2026-04-23 16:43 45.36407 26.64789 39875 ft 485 kts 317°
2026-04-23 16:44 45.40857 26.57645 39875 ft 485 kts 317°
2026-04-23 16:44 45.45314 26.50471 39875 ft 485 kts 317°
2026-04-23 16:45 45.49768 26.43282 39875 ft 485 kts 317°
2026-04-23 16:45 45.54225 26.36070 39875 ft 485 kts 317°
2026-04-23 16:46 45.58679 26.28821 39875 ft 486 kts 316°
2026-04-23 16:46 45.63117 26.21574 39875 ft 486 kts 316°
2026-04-23 16:47 45.67563 26.14312 39875 ft 486 kts 316°
2026-04-23 16:47 45.71994 26.07064 39875 ft 486 kts 316°
2026-04-23 16:48 45.76443 25.99772 39875 ft 486 kts 316°
2026-04-23 16:48 45.80862 25.92508 39875 ft 486 kts 316°
2026-04-23 16:49 45.85295 25.85203 39875 ft 486 kts 316°
2026-04-23 16:49 45.89679 25.77959 39875 ft 486 kts 316°
2026-04-23 16:50 45.94100 25.70634 39875 ft 486 kts 316°
2026-04-23 16:50 45.98527 25.63281 39875 ft 486 kts 316°
2026-04-23 16:51 46.02930 25.55950 39880 ft 486 kts 316°
2026-04-23 16:51 46.07330 25.48603 39887 ft 486 kts 316°
2026-04-23 16:52 46.11718 25.41268 39896 ft 486 kts 316°
2026-04-23 16:52 46.16150 25.33875 39899 ft 486 kts 316°
2026-04-23 16:53 46.20521 25.26510 39902 ft 486 kts 315°
2026-04-23 16:53 46.24898 25.19109 39903 ft 486 kts 315°
2026-04-23 16:54 46.29287 25.11681 39903 ft 485 kts 315°
2026-04-23 16:54 46.33641 25.04297 39903 ft 485 kts 315°
2026-04-23 16:55 46.37998 24.96885 39903 ft 484 kts 314°
2026-04-23 16:55 46.42361 24.89437 39903 ft 484 kts 314°
2026-04-23 16:56 46.46702 24.82003 39903 ft 484 kts 314°
2026-04-23 16:56 46.51008 24.74614 39903 ft 484 kts 314°
2026-04-23 16:57 46.55341 24.67161 39903 ft 484 kts 314°
2026-04-23 16:57 46.59679 24.59678 39903 ft 484 kts 314°
2026-04-23 16:58 46.63998 24.52208 39903 ft 484 kts 314°
2026-04-23 16:58 46.68314 24.44723 39903 ft 484 kts 314°
2026-04-23 16:59 46.72622 24.37232 39903 ft 484 kts 314°
2026-04-23 16:59 46.76917 24.29723 39903 ft 484 kts 314°
2026-04-23 17:00 46.81211 24.22184 39903 ft 484 kts 314°
2026-04-23 17:00 46.85505 24.14640 39906 ft 484 kts 314°
2026-04-23 17:01 46.89770 24.07137 39912 ft 484 kts 314°
2026-04-23 17:01 46.94045 23.99597 39920 ft 480 kts 314°
2026-04-23 17:02 46.98291 23.92088 39926 ft 477 kts 314°
2026-04-23 17:02 47.02473 23.84675 39929 ft 473 kts 314°
2026-04-23 17:03 47.06636 23.77276 39930 ft 470 kts 314°
2026-04-23 17:03 47.10760 23.69929 39932 ft 470 kts 314°
2026-04-23 17:04 47.14924 23.62538 39930 ft 470 kts 314°
2026-04-23 17:04 47.19096 23.55095 39930 ft 470 kts 314°
2026-04-23 17:05 47.23222 23.47691 39930 ft 470 kts 314°
2026-04-23 17:05 47.27339 23.40276 39924 ft 470 kts 314°
2026-04-23 17:06 47.31469 23.32809 39917 ft 470 kts 313°
2026-04-23 17:06 47.35566 23.25350 39910 ft 471 kts 313°
2026-04-23 17:07 47.39682 23.17847 39909 ft 470 kts 313°
2026-04-23 17:07 47.43798 23.10338 39914 ft 470 kts 313°
2026-04-23 17:08 47.47915 23.02811 39921 ft 470 kts 313°
2026-04-23 17:08 47.51982 22.95356 39926 ft 471 kts 313°
2026-04-23 17:09 47.56106 22.87773 39929 ft 472 kts 313°
2026-04-23 17:09 47.60219 22.80184 39929 ft 473 kts 312°
2026-04-23 17:10 47.64322 22.72584 39930 ft 474 kts 312°
2026-04-23 17:10 47.68420 22.64962 39930 ft 474 kts 312°
2026-04-23 17:11 47.72521 22.57296 39930 ft 474 kts 312°
2026-04-23 17:11 47.76612 22.49653 39927 ft 474 kts 313°
2026-04-23 17:12 47.80957 22.42395 39929 ft 471 kts 318°
2026-04-23 17:12 47.85645 22.35609 39929 ft 470 kts 320°
2026-04-23 17:13 47.90367 22.28853 39930 ft 470 kts 319°
2026-04-23 17:13 47.95065 22.22097 39930 ft 470 kts 319°
2026-04-23 17:14 47.99746 22.15349 39930 ft 470 kts 319°
2026-04-23 17:14 48.04432 22.08577 39931 ft 470 kts 319°
2026-04-23 17:15 48.09129 22.01772 39931 ft 470 kts 319°
2026-04-23 17:15 48.13822 21.94981 39931 ft 470 kts 319°
2026-04-23 17:16 48.18517 21.88175 39931 ft 470 kts 319°
2026-04-23 17:16 48.23188 21.81367 39932 ft 470 kts 319°
2026-04-23 17:17 48.27857 21.74533 39932 ft 469 kts 319°
2026-04-23 17:17 48.32509 21.67702 39932 ft 469 kts 319°
2026-04-23 17:18 48.39472 21.57438 39936 ft 469 kts 319°
2026-04-23 17:19 48.44144 21.50526 39944 ft 469 kts 319°
2026-04-23 17:19 48.48777 21.43656 39952 ft 469 kts 319°
2026-04-23 17:20 48.53414 21.36759 39956 ft 469 kts 319°
2026-04-23 17:21 48.62542 21.23082 39958 ft 470 kts 318°
2026-04-23 17:21 48.69479 21.12658 39959 ft 469 kts 318°
2026-04-23 17:22 48.76437 21.02172 39957 ft 473 kts 318°
2026-04-23 17:23 48.83446 20.91570 39957 ft 480 kts 318°
2026-04-23 17:24 48.90564 20.80757 39960 ft 484 kts 318°
2026-04-23 17:24 48.97651 20.69936 39970 ft 483 kts 319°
2026-04-23 17:25 49.04704 20.59092 39980 ft 481 kts 321°
2026-04-23 17:26 49.14156 20.44553 39985 ft 485 kts 323°
2026-04-23 17:27 49.21276 20.33562 39983 ft 485 kts 322°
2026-04-23 17:27 49.25975 20.26190 39984 ft 486 kts 322°
2026-04-23 17:28 49.30699 20.18799 39981 ft 485 kts 323°
2026-04-23 17:28 49.35541 20.11718 39984 ft 483 kts 324°
2026-04-23 17:29 49.40414 20.04692 39985 ft 483 kts 324°
2026-04-23 17:30 49.46914 19.95227 39984 ft 484 kts 324°
2026-04-23 17:30 49.55027 19.83314 39985 ft 485 kts 324°
2026-04-23 17:31 49.59881 19.76150 39985 ft 485 kts 324°
2026-04-23 17:31 49.64734 19.68967 39988 ft 485 kts 324°
2026-04-23 17:32 49.69579 19.61776 40001 ft 485 kts 324°
2026-04-23 17:32 49.74431 19.54551 40019 ft 485 kts 324°
2026-04-23 17:33 49.79253 19.47350 40032 ft 484 kts 324°
2026-04-23 17:33 49.84084 19.40115 40038 ft 484 kts 324°
2026-04-23 17:34 49.88910 19.32862 40041 ft 485 kts 323°
2026-04-23 17:35 49.96115 19.21954 40054 ft 485 kts 323°
2026-04-23 17:35 50.03384 19.10935 40064 ft 488 kts 323°
2026-04-23 17:36 50.08237 19.03561 40066 ft 491 kts 323°
2026-04-23 17:36 50.13121 18.96137 40068 ft 494 kts 323°
2026-04-23 17:37 50.18060 18.88621 40069 ft 495 kts 323°
2026-04-23 17:38 50.25407 18.77360 40078 ft 495 kts 323°
2026-04-23 17:38 50.30296 18.69830 40084 ft 495 kts 323°
2026-04-23 17:39 50.35195 18.62261 40085 ft 495 kts 323°
2026-04-23 17:39 50.40096 18.54666 40085 ft 495 kts 323°
2026-04-23 17:40 50.44983 18.47066 40088 ft 495 kts 323°
2026-04-23 17:40 50.49851 18.39468 40092 ft 495 kts 323°
2026-04-23 17:41 50.54723 18.31832 40093 ft 495 kts 322°
2026-04-23 17:41 50.62006 18.20340 40094 ft 495 kts 322°
2026-04-23 17:42 50.69267 18.08868 40094 ft 495 kts 322°
2026-04-23 17:43 50.74140 18.01148 40094 ft 495 kts 322°
2026-04-23 17:43 50.78976 17.93454 40094 ft 495 kts 322°
2026-04-23 17:44 50.83803 17.85749 40094 ft 495 kts 322°
2026-04-23 17:44 50.91084 17.74085 40095 ft 494 kts 322°
2026-04-23 17:45 50.98220 17.62590 40098 ft 485 kts 322°
2026-04-23 17:46 51.05247 17.51201 40108 ft 478 kts 321°
2026-04-23 17:46 51.09857 17.43680 40116 ft 477 kts 321°
2026-04-23 17:47 51.14498 17.36111 40121 ft 478 kts 320°
2026-04-23 17:48 51.20878 17.23759 40122 ft 485 kts 314°
2026-04-23 17:48 51.24901 17.15112 40122 ft 486 kts 313°
2026-04-23 17:49 51.28904 17.06450 40122 ft 486 kts 313°
2026-04-23 17:49 51.32928 16.97727 40122 ft 486 kts 313°
2026-04-23 17:50 51.36906 16.89084 40122 ft 486 kts 313°
2026-04-23 17:50 51.42919 16.75965 40125 ft 487 kts 313°
2026-04-23 17:51 51.46905 16.67228 40131 ft 487 kts 313°
2026-04-23 17:52 51.52885 16.54064 40141 ft 487 kts 313°
2026-04-23 17:52 51.58817 16.40939 40143 ft 486 kts 313°
2026-04-23 17:53 51.64759 16.27701 40141 ft 487 kts 312°
2026-04-23 17:54 51.68687 16.18899 40141 ft 487 kts 312°
2026-04-23 17:54 51.74605 16.05613 40135 ft 487 kts 312°
2026-04-23 17:55 51.80505 15.92310 40137 ft 487 kts 312°
2026-04-23 17:56 51.84425 15.83435 40142 ft 487 kts 312°
2026-04-23 17:56 51.90291 15.70098 40147 ft 486 kts 312°
2026-04-23 17:57 51.94209 15.61149 40148 ft 487 kts 312°
2026-04-23 17:58 52.00057 15.47735 40148 ft 487 kts 312°
2026-04-23 17:58 52.03943 15.38782 40148 ft 487 kts 312°
2026-04-23 17:59 52.07820 15.29800 40150 ft 488 kts 311°
2026-04-23 17:59 52.11708 15.20756 40163 ft 487 kts 311°
2026-04-23 18:00 52.15628 15.11676 40179 ft 493 kts 311°
2026-04-23 18:00 52.19566 15.02500 40191 ft 497 kts 311°
2026-04-23 18:01 52.23512 14.93239 40193 ft 504 kts 310°
2026-04-23 18:01 52.27546 14.83717 40198 ft 510 kts 310°
2026-04-23 18:02 52.30880 14.75783 40202 ft 511 kts 310°
2026-04-23 18:02 52.35575 14.64586 40203 ft 510 kts 310°
2026-04-23 18:03 52.39451 14.54799 40202 ft 513 kts 307°
2026-04-23 18:03 52.43050 14.44650 40203 ft 514 kts 306°
2026-04-23 18:04 52.46564 14.34515 40203 ft 514 kts 304°
2026-04-23 18:04 52.50092 14.24249 40203 ft 515 kts 304°
2026-04-23 18:05 52.53616 14.13965 40203 ft 515 kts 305°
2026-04-23 18:05 52.57117 14.03725 40203 ft 515 kts 305°
2026-04-23 18:06 52.60599 13.93509 40203 ft 515 kts 305°
2026-04-23 18:06 52.64093 13.83214 40203 ft 515 kts 305°
2026-04-23 18:07 52.67582 13.72895 40203 ft 515 kts 305°
2026-04-23 18:07 52.71055 13.62579 40204 ft 513 kts 305°
2026-04-23 18:07 52.72771 13.57458 40072 ft 504 kts 305°
2026-04-23 18:08 52.73870 13.54165 39906 ft 497 kts 305°
2026-04-23 18:08 52.76085 13.47518 39567 ft 485 kts 305°
2026-04-23 18:08 52.77708 13.42648 39317 ft 484 kts 305°
2026-04-23 18:08 52.79320 13.37807 39067 ft 482 kts 305°
2026-04-23 18:09 52.80928 13.32967 38815 ft 482 kts 304°
2026-04-23 18:09 52.82540 13.28096 38565 ft 483 kts 304°
2026-04-23 18:09 52.84145 13.23231 38315 ft 483 kts 304°
2026-04-23 18:09 52.85766 13.18316 38062 ft 483 kts 304°
2026-04-23 18:10 52.87378 13.13424 37810 ft 485 kts 304°
2026-04-23 18:10 52.88993 13.08525 37560 ft 488 kts 303°
2026-04-23 18:10 52.90614 13.03596 37308 ft 491 kts 303°
2026-04-23 18:10 52.92254 12.98599 37056 ft 494 kts 303°
2026-04-23 18:11 52.93874 12.93651 36809 ft 496 kts 303°
2026-04-23 18:11 52.95520 12.88596 36557 ft 497 kts 303°
2026-04-23 18:11 52.97166 12.83534 36306 ft 496 kts 303°
2026-04-23 18:11 52.98793 12.78520 36058 ft 494 kts 302°
2026-04-23 18:12 53.00417 12.73508 35808 ft 491 kts 302°
2026-04-23 18:12 53.02032 12.68519 35558 ft 489 kts 302°
2026-04-23 18:12 53.03612 12.63627 35312 ft 486 kts 302°
2026-04-23 18:12 53.05237 12.58589 35057 ft 485 kts 302°
2026-04-23 18:13 53.06818 12.53678 34808 ft 483 kts 302°
2026-04-23 18:13 53.08398 12.48761 34557 ft 481 kts 302°
2026-04-23 18:13 53.09970 12.43861 34307 ft 480 kts 302°
2026-04-23 18:13 53.11541 12.38981 34058 ft 479 kts 302°
2026-04-23 18:14 53.13132 12.34044 33704 ft 479 kts 301°
2026-04-23 18:14 53.14681 12.29203 33154 ft 480 kts 301°
2026-04-23 18:14 53.16244 12.24292 32425 ft 481 kts 301°
2026-04-23 18:14 53.17806 12.19365 31639 ft 482 kts 301°
2026-04-23 18:15 53.19369 12.14422 30740 ft 485 kts 301°
2026-04-23 18:15 53.20924 12.09501 29713 ft 489 kts 301°
2026-04-23 18:15 53.22522 12.04436 28747 ft 491 kts 301°
2026-04-23 18:15 53.24091 11.99450 27816 ft 491 kts 301°
2026-04-23 18:16 53.25677 11.94394 27170 ft 484 kts 301°
2026-04-23 18:16 53.27202 11.89518 26565 ft 477 kts 301°
2026-04-23 18:16 53.28731 11.84622 25901 ft 471 kts 301°
2026-04-23 18:17 53.31709 11.75053 24609 ft 460 kts 301°
2026-04-23 18:17 53.33172 11.70338 24048 ft 453 kts 301°
2026-04-23 18:17 53.34620 11.65668 23492 ft 447 kts 301°
2026-04-23 18:17 53.36211 11.61340 22860 ft 439 kts 308°
2026-04-23 18:18 53.38004 11.57157 22197 ft 435 kts 309°
2026-04-23 18:18 53.39761 11.53138 21565 ft 431 kts 309°
2026-04-23 18:18 53.41517 11.49066 20942 ft 426 kts 309°
2026-04-23 18:18 53.43208 11.45077 20332 ft 422 kts 308°
2026-04-23 18:19 53.44881 11.41071 19717 ft 417 kts 308°
2026-04-23 18:19 53.46543 11.37057 19100 ft 413 kts 308°
2026-04-23 18:19 53.47998 11.33516 18551 ft 410 kts 307°
2026-04-23 18:19 53.49728 11.29275 17891 ft 405 kts 307°
2026-04-23 18:20 53.51306 11.25397 17290 ft 401 kts 307°
2026-04-23 18:20 53.52877 11.21529 16693 ft 397 kts 307°
2026-04-23 18:20 53.54421 11.17727 16104 ft 393 kts 307°
2026-04-23 18:20 53.55936 11.13992 15519 ft 389 kts 307°
2026-04-23 18:21 53.57460 11.10227 14979 ft 384 kts 307°
2026-04-23 18:21 53.58937 11.06574 14484 ft 378 kts 307°
2026-04-23 18:21 53.60397 11.02954 13995 ft 372 kts 307°
2026-04-23 18:21 53.61834 10.99385 13524 ft 366 kts 307°
2026-04-23 18:22 53.63255 10.95851 13071 ft 360 kts 307°
2026-04-23 18:22 53.64653 10.92368 12619 ft 351 kts 307°
2026-04-23 18:22 53.65873 10.89013 11999 ft 326 kts 297°
2026-04-23 18:22 53.66346 10.85435 11404 ft 312 kts 274°
2026-04-23 18:23 53.66213 10.83013 11003 ft 304 kts 265°
2026-04-23 18:23 53.65357 10.75312 9571 ft 276 kts 263°
2026-04-23 18:24 53.64649 10.69053 8316 ft 268 kts 263°
2026-04-23 18:24 53.64315 10.66005 7692 ft 264 kts 263°
2026-04-23 18:24 53.63994 10.62979 7064 ft 260 kts 263°
2026-04-23 18:25 53.63392 10.57062 5814 ft 254 kts 263°
2026-04-23 18:25 53.63112 10.54156 5253 ft 250 kts 264°
2026-04-23 18:25 53.62843 10.51273 4980 ft 250 kts 264°
2026-04-23 18:25 53.62573 10.48360 4949 ft 250 kts 264°
2026-04-23 18:26 53.62301 10.45450 4951 ft 250 kts 264°
2026-04-23 18:26 53.62030 10.42574 4956 ft 251 kts 264°
2026-04-23 18:26 53.61750 10.39635 4961 ft 251 kts 264°
2026-04-23 18:26 53.61471 10.36725 4966 ft 251 kts 264°
2026-04-23 18:27 53.61269 10.33801 4961 ft 249 kts 275°
2026-04-23 18:27 53.61753 10.31076 4976 ft 247 kts 303°
2026-04-23 18:27 53.63004 10.29079 4982 ft 248 kts 331°
2026-04-23 18:27 53.64674 10.28405 4987 ft 253 kts 359°
2026-04-23 18:28 53.66392 10.29233 4990 ft 261 kts 27°
2026-04-23 18:28 53.67757 10.31262 4997 ft 266 kts 43°
2026-04-23 18:28 53.69025 10.33563 4995 ft 266 kts 43°
2026-04-23 18:28 53.70282 10.35868 4993 ft 267 kts 43°
2026-04-23 18:29 53.71542 10.38185 4990 ft 267 kts 43°
2026-04-23 18:29 53.72821 10.40405 4979 ft 266 kts 36°
2026-04-23 18:29 53.74424 10.41899 4817 ft 260 kts 10°
2026-04-23 18:29 53.76176 10.41947 4458 ft 253 kts 342°
2026-04-23 18:30 53.77684 10.40550 4099 ft 250 kts 313°
2026-04-23 18:30 53.78571 10.38045 3735 ft 250 kts 285°
2026-04-23 18:30 53.78623 10.35118 3402 ft 252 kts 258°
2026-04-23 18:30 53.77933 10.32455 3378 ft 242 kts 242°
2026-04-23 18:31 53.77103 10.30161 3373 ft 214 kts 241°
2026-04-23 18:31 53.76363 10.28150 3362 ft 190 kts 242°
2026-04-23 18:31 53.75701 10.26348 3387 ft 167 kts 242°
2026-04-23 18:31 53.75132 10.24784 3360 ft 145 kts 243°
2026-04-23 18:32 53.74628 10.23387 3348 ft 140 kts 244°
2026-04-23 18:32 53.74123 10.21956 3267 ft 140 kts 244°
2026-04-23 18:32 53.73595 10.20569 3141 ft 140 kts 242°
2026-04-23 18:32 53.73053 10.19227 2962 ft 139 kts 239°
2026-04-23 18:33 53.72469 10.17906 2781 ft 139 kts 237°
2026-04-23 18:33 53.71867 10.16632 2601 ft 138 kts 236°
2026-04-23 18:33 53.71257 10.15376 2421 ft 138 kts 235°
2026-04-23 18:33 53.70646 10.14136 2242 ft 137 kts 235°
2026-04-23 18:34 53.70031 10.12897 2060 ft 135 kts 234°
2026-04-23 18:34 53.69437 10.11707 1877 ft 131 kts 235°
2026-04-23 18:34 53.68850 10.10523 1707 ft 131 kts 234°
2026-04-23 18:34 53.68272 10.09362 1536 ft 131 kts 234°
2026-04-23 18:35 53.67689 10.08191 1363 ft 130 kts 234°
2026-04-23 18:35 53.67103 10.07013 1188 ft 130 kts 234°
2026-04-23 18:35 53.66524 10.05850 1015 ft 129 kts 234°
2026-04-23 18:35 53.65974 10.04743 844 ft 127 kts 234°
2026-04-23 18:36 53.65402 10.03586 682 ft 134 kts 234°
2026-04-23 18:36 53.64822 10.02426 498 ft 134 kts 234°
2026-04-23 18:36 53.64265 10.01299 333 ft 132 kts 234°
2026-04-23 18:36 53.63693 10.00143 146 ft 129 kts 233°
2026-04-23 18:37 53.63170 9.99079 67 ft 99 kts 229°
2026-04-23 18:37 53.62836 9.98413 67 ft 59 kts 229°
2026-04-23 18:37 53.62584 9.97894 67 ft 55 kts 233°
2026-04-23 18:37 53.62394 9.97526 67 ft 35 kts 228°
2026-04-23 18:38 53.62252 9.97368 67 ft 19 kts 160°
2026-04-23 18:38 53.62186 9.97545 67 ft 16 kts 78°
2026-04-23 18:38 53.62238 9.97707 67 ft 13 kts 48°
2026-04-23 18:38 53.62277 9.97781 67 ft 9 kts 47°
2026-04-23 18:39 53.62311 9.97848 67 ft 7 kts 51°
2026-04-23 18:39 53.62316 9.97858 67 ft 0 kts 52°
2026-04-23 18:39 53.62326 9.97881 67 ft 4 kts 52°
2026-04-23 18:39 53.62349 9.97930 67 ft 6 kts 52°
2026-04-23 18:40 53.62384 9.98001 67 ft 10 kts 49°
2026-04-23 18:40 53.62452 9.98115 67 ft 16 kts 40°
2026-04-23 18:40 53.62545 9.98263 67 ft 19 kts 49°
2026-04-23 18:40 53.62637 9.98445 67 ft 21 kts 50°
2026-04-23 18:41 53.62735 9.98648 67 ft 23 kts 50°
2026-04-23 18:41 53.62843 9.98866 67 ft 25 kts 51°
2026-04-23 18:41 53.62960 9.99101 67 ft 27 kts 50°
2026-04-23 18:41 53.63078 9.99346 67 ft 24 kts 55°
2026-04-23 18:42 53.63134 9.99486 67 ft 12 kts 53°
2026-04-23 18:42 53.63191 9.99606 67 ft 13 kts 50°
2026-04-23 18:42 53.63248 9.99715 67 ft 11 kts 44°
2026-04-23 18:42 53.63312 9.99828 67 ft 11 kts 54°
2026-04-23 18:43 53.63365 9.99933 67 ft 12 kts 53°
2026-04-23 18:43 53.63421 10.00048 67 ft 13 kts 49°
2026-04-23 18:43 53.63444 10.00116 67 ft 0 kts 100°